UAE70M OMDB-EGLL

Flight info

Callsign UAE70M
Flight time 8h 32m
Altitude 35000
Route ANVIX L223 TARDI N629 BOTAM Y855 LAKLU/N0496F340 Q204 NALKI G652 TOKRA DCT ALROK DCT BOSOB DCT ITRUX Y511 BOXEB/N0495F360 Y511 PMA Z712 WEJ L677 GESON Q777 RASDA DCT OTHON DCT VAXOS DCT RDS UL609 MES DCT FSK/N0477F380 DCT DISOR DCT LONTA UL608 DOLEV DCT SABAD DCT KUBUD DCT SOTOV DCT XEBIX DCT USUDO DCT LIRSU DCT DENUT L608 COA/N0425F180 L179 SASKI L608 LOGAN
Aircraft B77W/H-SDE1E2E3FGHIJ2J3J4J5M1RWXY/LB1D1

Departure

Time 2026-04-25 08:14
Airport Dubai International Airport (OMDB)

Arrival

Time 2026-04-25 16:46
Airport London Heathrow Airport (EGLL)
Time Latitude Longitude Altitude Speed Heading
2026-04-25 07:58 25.24264 55.37521 26 ft 0 kts 211°
2026-04-25 08:05 25.24276 55.37529 31 ft 4 kts 211°
2026-04-25 08:05 25.24299 55.37545 29 ft 4 kts 211°
2026-04-25 08:06 25.24319 55.37558 31 ft 3 kts 209°
2026-04-25 08:06 25.24341 55.37564 31 ft 3 kts 153°
2026-04-25 08:06 25.24360 55.37545 31 ft 3 kts 122°
2026-04-25 08:06 25.24368 55.37530 31 ft 1 kts 122°
2026-04-25 08:07 25.24369 55.37528 31 ft 2 kts 122°
2026-04-25 08:09 25.24364 55.37537 31 ft 4 kts 122°
2026-04-25 08:09 25.24343 55.37575 30 ft 6 kts 122°
2026-04-25 08:09 25.24320 55.37615 31 ft 6 kts 122°
2026-04-25 08:10 25.24290 55.37670 31 ft 12 kts 122°
2026-04-25 08:10 25.24264 55.37763 29 ft 14 kts 73°
2026-04-25 08:10 25.24313 55.37807 30 ft 8 kts 32°
2026-04-25 08:10 25.24339 55.37825 26 ft 0 kts 33°
2026-04-25 08:11 25.24347 55.37831 26 ft 7 kts 33°
2026-04-25 08:11 25.24427 55.37892 29 ft 16 kts 35°
2026-04-25 08:12 25.24517 55.37962 29 ft 16 kts 34°
2026-04-25 08:12 25.24591 55.38018 28 ft 10 kts 33°
2026-04-25 08:12 25.24623 55.38041 28 ft 2 kts 32°
2026-04-25 08:12 25.24630 55.38046 28 ft 0 kts 32°
2026-04-25 08:13 25.24670 55.38073 29 ft 11 kts 32°
2026-04-25 08:13 25.24744 55.38096 31 ft 12 kts 346°
2026-04-25 08:14 25.25019 55.37645 31 ft 90 kts 301°
2026-04-25 08:14 25.25464 55.36844 29 ft 153 kts 301°
2026-04-25 08:14 25.26100 55.35692 133 ft 187 kts 301°
2026-04-25 08:14 25.26756 55.34474 794 ft 182 kts 300°
2026-04-25 08:15 25.27421 55.33236 1311 ft 189 kts 302°
2026-04-25 08:15 25.28125 55.31974 1775 ft 193 kts 303°
2026-04-25 08:15 25.28835 55.30716 2273 ft 197 kts 303°
2026-04-25 08:15 25.29364 55.29303 2522 ft 206 kts 270°
2026-04-25 08:16 25.28959 55.27757 2743 ft 216 kts 242°
2026-04-25 08:16 25.28245 55.26282 3213 ft 217 kts 245°
2026-04-25 08:16 25.27600 55.24806 3869 ft 209 kts 246°
2026-04-25 08:16 25.26983 55.23380 4376 ft 208 kts 246°
2026-04-25 08:17 25.26364 55.21936 4830 ft 208 kts 247°
2026-04-25 08:17 25.25730 55.20453 5085 ft 223 kts 246°
2026-04-25 08:17 25.25045 55.18843 5337 ft 235 kts 246°
2026-04-25 08:17 25.24121 55.17333 5637 ft 245 kts 218°
2026-04-25 08:18 25.22527 55.16633 5989 ft 256 kts 182°
2026-04-25 08:18 25.20734 55.16759 6393 ft 261 kts 176°
2026-04-25 08:18 25.18960 55.17219 6780 ft 267 kts 152°
2026-04-25 08:18 25.17595 55.18635 7051 ft 279 kts 119°
2026-04-25 08:19 25.16727 55.20603 7334 ft 289 kts 116°
2026-04-25 08:19 25.15823 55.22606 7865 ft 295 kts 118°
2026-04-25 08:19 25.14872 55.24625 8516 ft 295 kts 119°
2026-04-25 08:19 25.13914 55.26634 9184 ft 296 kts 119°
2026-04-25 08:20 25.12947 55.28655 9810 ft 300 kts 120°
2026-04-25 08:20 25.11967 55.30697 10373 ft 303 kts 120°
2026-04-25 08:20 25.10976 55.32757 10970 ft 305 kts 120°
2026-04-25 08:20 25.10035 55.34857 11639 ft 307 kts 116°
2026-04-25 08:21 25.09161 55.37011 12374 ft 308 kts 115°
2026-04-25 08:21 25.08285 55.39178 13081 ft 311 kts 115°
2026-04-25 08:21 25.07390 55.41368 13801 ft 314 kts 116°
2026-04-25 08:21 25.06504 55.43611 14262 ft 328 kts 114°
2026-04-25 08:22 25.05596 55.45981 14406 ft 351 kts 114°
2026-04-25 08:22 25.04610 55.48571 14565 ft 373 kts 114°
2026-04-25 08:22 25.03585 55.51244 14728 ft 393 kts 115°
2026-04-25 08:22 25.02493 55.54076 14914 ft 408 kts 114°
2026-04-25 08:23 25.01313 55.56932 14929 ft 409 kts 119°
2026-04-25 08:23 24.99880 55.59640 14980 ft 409 kts 123°
2026-04-25 08:23 24.98343 55.62289 15589 ft 410 kts 124°
2026-04-25 08:23 24.96830 55.64956 16381 ft 411 kts 123°
2026-04-25 08:24 24.95347 55.67661 17072 ft 413 kts 122°
2026-04-25 08:24 24.93860 55.70390 17710 ft 417 kts 124°
2026-04-25 08:24 24.92214 55.73044 18298 ft 421 kts 128°
2026-04-25 08:24 24.90450 55.75635 18814 ft 425 kts 129°
2026-04-25 08:25 24.88648 55.78247 19288 ft 431 kts 129°
2026-04-25 08:25 24.86843 55.80914 19750 ft 438 kts 128°
2026-04-25 08:25 24.85030 55.83637 20225 ft 443 kts 128°
2026-04-25 08:25 24.83227 55.86353 20751 ft 447 kts 128°
2026-04-25 08:26 24.81366 55.89119 21208 ft 452 kts 128°
2026-04-25 08:26 24.79470 55.91920 21686 ft 458 kts 128°
2026-04-25 08:26 24.77518 55.94703 22132 ft 461 kts 133°
2026-04-25 08:26 24.75238 55.97200 22567 ft 465 kts 140°
2026-04-25 08:27 24.72777 55.99542 23036 ft 469 kts 141°
2026-04-25 08:27 24.70321 56.01930 23500 ft 474 kts 140°
2026-04-25 08:27 24.67881 56.04405 23880 ft 479 kts 139°
2026-04-25 08:27 24.65438 56.06923 24297 ft 482 kts 139°
2026-04-25 08:28 24.62993 56.09441 24771 ft 484 kts 139°
2026-04-25 08:28 24.60520 56.11976 25216 ft 486 kts 139°
2026-04-25 08:28 24.58036 56.14528 25644 ft 489 kts 139°
2026-04-25 08:28 24.55684 56.17188 26055 ft 494 kts 133°
2026-04-25 08:29 24.53440 56.20062 26479 ft 497 kts 132°
2026-04-25 08:29 24.51197 56.22968 26859 ft 500 kts 132°
2026-04-25 08:29 24.48935 56.25892 27236 ft 503 kts 132°
2026-04-25 08:29 24.46657 56.28818 27631 ft 506 kts 133°
2026-04-25 08:30 24.44357 56.31754 27988 ft 508 kts 133°
2026-04-25 08:30 24.42035 56.34706 28355 ft 510 kts 133°
2026-04-25 08:30 24.39701 56.37668 28697 ft 513 kts 133°
2026-04-25 08:30 24.37359 56.40639 29020 ft 516 kts 133°
2026-04-25 08:31 24.35007 56.43622 29315 ft 518 kts 133°
2026-04-25 08:31 24.32648 56.46614 29609 ft 521 kts 133°
2026-04-25 08:31 24.30278 56.49628 29922 ft 522 kts 132°
2026-04-25 08:31 24.28069 56.52730 30275 ft 523 kts 128°
2026-04-25 08:32 24.25945 56.55950 30680 ft 521 kts 127°
2026-04-25 08:32 24.23833 56.59179 31080 ft 519 kts 127°
2026-04-25 08:32 24.21730 56.62389 31462 ft 518 kts 127°
2026-04-25 08:32 24.19615 56.65597 31817 ft 518 kts 128°
2026-04-25 08:33 24.17500 56.68787 32168 ft 517 kts 128°
2026-04-25 08:33 24.15385 56.71967 32526 ft 516 kts 128°
2026-04-25 08:33 24.13266 56.75147 32878 ft 515 kts 128°
2026-04-25 08:33 24.11157 56.78314 33224 ft 514 kts 128°
2026-04-25 08:34 24.09081 56.81430 33550 ft 513 kts 128°
2026-04-25 08:34 24.06955 56.84552 33840 ft 510 kts 132°
2026-04-25 08:34 24.04417 56.87249 34034 ft 507 kts 146°
2026-04-25 08:34 24.01444 56.89283 34247 ft 503 kts 156°
2026-04-25 08:35 23.98213 56.90682 34413 ft 498 kts 168°
2026-04-25 08:35 23.94839 56.91547 34530 ft 498 kts 170°
2026-04-25 08:35 23.91453 56.92383 34695 ft 500 kts 170°
2026-04-25 08:35 23.88061 56.93238 34856 ft 502 kts 170°
2026-04-25 08:36 23.84650 56.94121 34908 ft 504 kts 169°
2026-04-25 08:36 23.77839 56.95934 34929 ft 502 kts 169°
2026-04-25 08:37 23.71100 56.97749 34958 ft 497 kts 169°
2026-04-25 08:37 23.64377 56.99552 34971 ft 496 kts 169°
2026-04-25 08:38 23.57675 57.01344 34972 ft 496 kts 169°
2026-04-25 08:38 23.51004 57.03125 34987 ft 497 kts 169°
2026-04-25 08:39 23.44274 57.04921 35009 ft 498 kts 169°
2026-04-25 08:39 23.37443 57.05982 34997 ft 494 kts 183°
2026-04-25 08:40 23.30661 57.05213 35013 ft 489 kts 196°
2026-04-25 08:40 23.24017 57.03561 35013 ft 490 kts 195°
2026-04-25 08:41 23.17391 57.01956 35027 ft 491 kts 195°
2026-04-25 08:41 23.10707 57.00389 35019 ft 491 kts 195°
2026-04-25 08:42 23.04013 56.98829 35017 ft 491 kts 195°
2026-04-25 08:42 22.97384 56.97270 35030 ft 490 kts 195°
2026-04-25 08:43 22.90726 56.95679 35013 ft 489 kts 195°
2026-04-25 08:43 22.84305 56.93555 35020 ft 477 kts 214°
2026-04-25 08:43 22.81720 56.91342 35001 ft 472 kts 229°
2026-04-25 08:44 22.79743 56.88541 35022 ft 467 kts 243°
2026-04-25 08:44 22.76812 56.82265 35007 ft 468 kts 245°
2026-04-25 08:45 22.73885 56.75959 34996 ft 472 kts 245°
2026-04-25 08:45 22.70869 56.69618 34985 ft 475 kts 244°
2026-04-25 08:46 22.67808 56.63252 34974 ft 476 kts 244°
2026-04-25 08:46 22.64746 56.56894 34953 ft 476 kts 244°
2026-04-25 08:47 22.61687 56.50545 34962 ft 475 kts 245°
2026-04-25 08:47 22.58654 56.44250 34957 ft 474 kts 245°
2026-04-25 08:48 22.55603 56.37931 34951 ft 474 kts 245°
2026-04-25 08:48 22.52544 56.31613 34950 ft 473 kts 244°
2026-04-25 08:49 22.49487 56.25318 34940 ft 472 kts 244°
2026-04-25 08:49 22.46435 56.19037 34936 ft 471 kts 244°
2026-04-25 08:50 22.43391 56.12777 34937 ft 470 kts 244°
2026-04-25 08:50 22.40368 56.06565 34929 ft 469 kts 244°
2026-04-25 08:51 22.37323 56.00321 34928 ft 469 kts 244°
2026-04-25 08:51 22.34264 55.94092 34920 ft 470 kts 244°
2026-04-25 08:52 22.31196 55.87860 34915 ft 470 kts 244°
2026-04-25 08:52 22.28128 55.81625 34916 ft 470 kts 244°
2026-04-25 08:53 22.25577 55.76446 34907 ft 470 kts 244°
2026-04-25 08:53 22.22505 55.70208 34906 ft 470 kts 245°
2026-04-25 08:54 22.19443 55.63989 34904 ft 469 kts 244°
2026-04-25 08:54 22.16710 55.57642 34900 ft 464 kts 254°
2026-04-25 08:55 22.15195 55.50902 34900 ft 461 kts 264°
2026-04-25 08:55 22.14614 55.44044 34881 ft 458 kts 266°
2026-04-25 08:56 22.14099 55.37192 34894 ft 457 kts 266°
2026-04-25 08:56 22.13561 55.30372 34896 ft 456 kts 266°
2026-04-25 08:57 22.13006 55.23602 34884 ft 455 kts 266°
2026-04-25 08:57 22.12439 55.16807 34895 ft 455 kts 266°
2026-04-25 08:58 22.11870 55.10020 34882 ft 454 kts 266°
2026-04-25 08:58 22.11298 55.03233 34872 ft 454 kts 266°
2026-04-25 08:59 22.10726 54.96452 34877 ft 454 kts 266°
2026-04-25 08:59 22.10149 54.89660 34892 ft 455 kts 266°
2026-04-25 09:00 22.09568 54.82856 34869 ft 457 kts 266°
2026-04-25 09:00 22.08983 54.76038 34892 ft 457 kts 266°
2026-04-25 09:01 22.08394 54.69211 34888 ft 457 kts 266°
2026-04-25 09:01 22.07807 54.62434 34877 ft 457 kts 266°
2026-04-25 09:02 22.07212 54.55600 34890 ft 457 kts 266°
2026-04-25 09:02 22.06615 54.48771 34875 ft 457 kts 266°
2026-04-25 09:03 22.06015 54.41948 34882 ft 456 kts 266°
2026-04-25 09:03 22.05413 54.35137 34888 ft 456 kts 266°
2026-04-25 09:04 22.04810 54.28344 34886 ft 455 kts 266°
2026-04-25 09:04 22.04209 54.21605 34879 ft 454 kts 266°
2026-04-25 09:05 22.03601 54.14820 34883 ft 455 kts 266°
2026-04-25 09:05 22.02991 54.08038 34890 ft 455 kts 266°
2026-04-25 09:06 22.02378 54.01245 34875 ft 456 kts 266°
2026-04-25 09:06 22.01759 53.94444 34883 ft 456 kts 265°
2026-04-25 09:07 22.01137 53.87623 34895 ft 457 kts 265°
2026-04-25 09:07 22.00514 53.80836 34883 ft 458 kts 265°
2026-04-25 09:08 21.99885 53.74000 34899 ft 459 kts 265°
2026-04-25 09:08 21.99251 53.67154 34885 ft 458 kts 265°
2026-04-25 09:09 21.98617 53.60334 34894 ft 457 kts 265°
2026-04-25 09:09 21.97981 53.53529 34893 ft 455 kts 265°
2026-04-25 09:10 21.97346 53.46747 34882 ft 454 kts 265°
2026-04-25 09:10 21.96708 53.39976 34887 ft 454 kts 265°
2026-04-25 09:11 21.95751 53.29872 34900 ft 454 kts 265°
2026-04-25 09:11 21.95107 53.23109 34883 ft 454 kts 265°
2026-04-25 09:12 21.94458 53.16322 34900 ft 456 kts 265°
2026-04-25 09:12 21.93804 53.09517 34892 ft 457 kts 265°
2026-04-25 09:13 21.93145 53.02695 34903 ft 458 kts 265°
2026-04-25 09:13 21.92484 52.95867 34908 ft 459 kts 265°
2026-04-25 09:14 21.91818 52.89026 34904 ft 459 kts 265°
2026-04-25 09:14 21.91153 52.82228 34896 ft 459 kts 265°
2026-04-25 09:15 21.90487 52.75385 34892 ft 459 kts 266°
2026-04-25 09:15 21.90530 52.68533 34906 ft 458 kts 275°
2026-04-25 09:16 21.91539 52.61770 34915 ft 458 kts 281°
2026-04-25 09:16 21.92814 52.55046 34911 ft 459 kts 280°
2026-04-25 09:17 21.94707 52.44917 34907 ft 460 kts 280°
2026-04-25 09:18 21.95950 52.38145 34910 ft 461 kts 280°
2026-04-25 09:18 21.97190 52.31353 34918 ft 462 kts 279°
2026-04-25 09:19 21.98421 52.24592 34912 ft 462 kts 280°
2026-04-25 09:19 21.99656 52.17797 34917 ft 462 kts 280°
2026-04-25 09:20 22.00886 52.11010 34906 ft 461 kts 280°
2026-04-25 09:20 22.02113 52.04227 34917 ft 460 kts 280°
2026-04-25 09:21 22.03332 51.97468 34933 ft 459 kts 280°
2026-04-25 09:21 22.04546 51.90727 34907 ft 457 kts 280°
2026-04-25 09:22 22.05750 51.84024 34912 ft 454 kts 280°
2026-04-25 09:22 22.06944 51.77353 34916 ft 452 kts 281°
2026-04-25 09:23 22.08124 51.70747 34925 ft 451 kts 281°
2026-04-25 09:23 22.09307 51.64110 34926 ft 450 kts 281°
2026-04-25 09:24 22.10486 51.57478 34926 ft 450 kts 281°
2026-04-25 09:24 22.11664 51.50837 34932 ft 451 kts 281°
2026-04-25 09:25 22.12843 51.44172 34946 ft 452 kts 281°
2026-04-25 09:25 22.14018 51.37515 34938 ft 452 kts 280°
2026-04-25 09:26 22.15186 51.30883 34929 ft 453 kts 281°
2026-04-25 09:26 22.16356 51.24217 34937 ft 452 kts 281°
2026-04-25 09:27 22.17525 51.17547 34938 ft 452 kts 281°
2026-04-25 09:27 22.18691 51.10873 34934 ft 452 kts 281°
2026-04-25 09:28 22.19855 51.04199 34936 ft 452 kts 281°
2026-04-25 09:28 22.21015 50.97528 34930 ft 452 kts 280°
2026-04-25 09:29 22.22172 50.90859 34940 ft 452 kts 280°
2026-04-25 09:29 22.23320 50.84227 34939 ft 452 kts 279°
2026-04-25 09:30 22.24471 50.77553 34931 ft 452 kts 279°
2026-04-25 09:30 22.25621 50.70872 34937 ft 452 kts 279°
2026-04-25 09:31 22.26768 50.64187 34943 ft 452 kts 280°
2026-04-25 09:31 22.27912 50.57511 34932 ft 452 kts 280°
2026-04-25 09:32 22.29052 50.50840 34926 ft 452 kts 280°
2026-04-25 09:32 22.30188 50.44174 34936 ft 451 kts 280°
2026-04-25 09:33 22.31318 50.37520 34939 ft 450 kts 279°
2026-04-25 09:33 22.32445 50.30879 34944 ft 448 kts 279°
2026-04-25 09:34 22.33562 50.24274 34931 ft 446 kts 279°
2026-04-25 09:34 22.34671 50.17696 34936 ft 445 kts 279°
2026-04-25 09:35 22.35769 50.11168 34918 ft 444 kts 279°
2026-04-25 09:35 22.36866 50.04627 34928 ft 442 kts 279°
2026-04-25 09:36 22.37962 49.98081 34932 ft 442 kts 279°
2026-04-25 09:36 22.39053 49.91546 34937 ft 443 kts 279°
2026-04-25 09:37 22.40144 49.84993 34945 ft 444 kts 279°
2026-04-25 09:37 22.41236 49.78416 34934 ft 445 kts 279°
2026-04-25 09:38 22.42328 49.71829 34934 ft 445 kts 279°
2026-04-25 09:38 22.43416 49.65241 34930 ft 445 kts 279°
2026-04-25 09:39 22.44503 49.58646 34942 ft 446 kts 279°
2026-04-25 09:39 22.45587 49.52052 34930 ft 445 kts 279°
2026-04-25 09:40 22.47201 49.42201 34937 ft 446 kts 279°
2026-04-25 09:40 22.48279 49.35595 34931 ft 446 kts 279°
2026-04-25 09:41 22.49356 49.28985 34929 ft 446 kts 279°
2026-04-25 09:41 22.50430 49.22370 34953 ft 447 kts 279°
2026-04-25 09:42 22.51322 49.16863 34940 ft 447 kts 279°
2026-04-25 09:42 22.52393 49.10236 34941 ft 447 kts 279°
2026-04-25 09:43 22.53460 49.03616 34946 ft 446 kts 279°
2026-04-25 09:43 22.54523 48.97005 34956 ft 446 kts 279°
2026-04-25 09:44 22.55583 48.90393 34938 ft 445 kts 279°
2026-04-25 09:44 22.56639 48.83793 34939 ft 445 kts 279°
2026-04-25 09:45 22.57691 48.77194 34956 ft 445 kts 279°
2026-04-25 09:45 22.58733 48.70642 34957 ft 445 kts 278°
2026-04-25 09:46 22.59779 48.64044 34952 ft 445 kts 279°
2026-04-25 09:46 22.60822 48.57446 34949 ft 444 kts 279°
2026-04-25 09:47 22.61863 48.50849 34948 ft 444 kts 279°
2026-04-25 09:47 22.62899 48.44264 34948 ft 443 kts 279°
2026-04-25 09:48 22.63931 48.37684 34952 ft 443 kts 279°
2026-04-25 09:48 22.64960 48.31108 34954 ft 443 kts 279°
2026-04-25 09:49 22.65984 48.24538 34952 ft 443 kts 279°
2026-04-25 09:49 22.67001 48.18005 34959 ft 442 kts 278°
2026-04-25 09:50 22.68021 48.11429 34955 ft 442 kts 278°
2026-04-25 09:50 22.69035 48.04867 34957 ft 441 kts 278°
2026-04-25 09:51 22.69700 47.98272 34960 ft 440 kts 275°
2026-04-25 09:51 22.70231 47.91659 34955 ft 440 kts 275°
2026-04-25 09:52 22.70765 47.85064 34956 ft 439 kts 275°
2026-04-25 09:52 22.71307 47.78471 34963 ft 439 kts 275°
2026-04-25 09:53 22.71846 47.71926 34967 ft 439 kts 275°
2026-04-25 09:53 22.72388 47.65304 34971 ft 438 kts 275°
2026-04-25 09:54 22.72920 47.58764 34974 ft 438 kts 275°
2026-04-25 09:54 22.73452 47.52189 34979 ft 438 kts 275°
2026-04-25 09:55 22.73981 47.45625 34983 ft 437 kts 275°
2026-04-25 09:55 22.74507 47.39068 34987 ft 436 kts 275°
2026-04-25 09:56 22.75028 47.32522 34986 ft 436 kts 275°
2026-04-25 09:56 22.75547 47.25986 34997 ft 435 kts 275°
2026-04-25 09:57 22.76060 47.19488 34997 ft 436 kts 275°
2026-04-25 09:57 22.76578 47.12950 35007 ft 436 kts 275°
2026-04-25 09:58 22.77103 47.06402 35022 ft 436 kts 275°
2026-04-25 09:58 22.77625 46.99864 35016 ft 436 kts 275°
2026-04-25 09:59 22.78144 46.93314 35013 ft 435 kts 275°
2026-04-25 09:59 22.78655 46.86829 35012 ft 434 kts 275°
2026-04-25 10:00 22.79165 46.80309 35017 ft 434 kts 275°
2026-04-25 10:00 22.79673 46.73791 35019 ft 433 kts 275°
2026-04-25 10:01 22.80177 46.67282 35017 ft 433 kts 274°
2026-04-25 10:01 22.80679 46.60774 35021 ft 433 kts 274°
2026-04-25 10:02 22.81178 46.54265 35017 ft 433 kts 275°
2026-04-25 10:02 22.81669 46.47831 35034 ft 433 kts 274°
2026-04-25 10:03 22.82168 46.41247 35015 ft 432 kts 274°
2026-04-25 10:03 22.82652 46.34804 35018 ft 431 kts 274°
2026-04-25 10:04 22.83129 46.28334 35016 ft 430 kts 274°
2026-04-25 10:04 22.83652 46.21868 35005 ft 429 kts 274°
2026-04-25 10:05 22.84109 46.15413 35007 ft 429 kts 274°
2026-04-25 10:05 22.84553 46.08957 35001 ft 430 kts 274°
2026-04-25 10:06 22.85013 46.02473 34991 ft 431 kts 274°
2026-04-25 10:06 22.85478 45.95984 34997 ft 432 kts 274°
2026-04-25 10:07 22.85939 45.89535 34994 ft 432 kts 274°
2026-04-25 10:07 22.86402 45.83029 34985 ft 432 kts 274°
2026-04-25 10:08 22.86861 45.76532 34979 ft 432 kts 274°
2026-04-25 10:08 22.87317 45.70038 34988 ft 431 kts 274°
2026-04-25 10:09 22.87770 45.63554 34986 ft 431 kts 274°
2026-04-25 10:09 22.88219 45.57080 34979 ft 430 kts 274°
2026-04-25 10:10 22.88665 45.50614 34986 ft 430 kts 274°
2026-04-25 10:10 22.89109 45.44143 34988 ft 430 kts 274°
2026-04-25 10:11 22.89550 45.37678 35007 ft 430 kts 274°
2026-04-25 10:11 22.89989 45.31200 35000 ft 430 kts 274°
2026-04-25 10:12 22.90423 45.24762 34990 ft 430 kts 274°
2026-04-25 10:13 22.91072 45.15056 34983 ft 430 kts 274°
2026-04-25 10:13 22.91501 45.08594 34991 ft 429 kts 274°
2026-04-25 10:14 22.91928 45.02135 34991 ft 429 kts 274°
2026-04-25 10:14 22.92353 44.95668 34993 ft 429 kts 274°
2026-04-25 10:15 22.92775 44.89204 34989 ft 430 kts 274°
2026-04-25 10:15 22.93196 44.82732 34994 ft 430 kts 274°
2026-04-25 10:16 22.93614 44.76255 34990 ft 430 kts 274°
2026-04-25 10:16 22.94089 44.69813 34988 ft 431 kts 277°
2026-04-25 10:17 22.95313 44.63435 34995 ft 432 kts 284°
2026-04-25 10:17 22.97217 44.57238 34998 ft 433 kts 286°
2026-04-25 10:18 22.99155 44.51043 34991 ft 433 kts 286°
2026-04-25 10:18 23.01079 44.44843 34991 ft 433 kts 286°
2026-04-25 10:19 23.02988 44.38650 34998 ft 432 kts 286°
2026-04-25 10:19 23.04891 44.32462 34987 ft 432 kts 286°
2026-04-25 10:20 23.06790 44.26280 34987 ft 431 kts 286°
2026-04-25 10:20 23.08683 44.20104 34992 ft 430 kts 286°
2026-04-25 10:21 23.10556 44.13984 34987 ft 430 kts 285°
2026-04-25 10:21 23.12440 44.07819 34990 ft 430 kts 285°
2026-04-25 10:22 23.14321 44.01656 34999 ft 429 kts 285°
2026-04-25 10:22 23.16200 43.95492 34988 ft 429 kts 285°
2026-04-25 10:23 23.18073 43.89334 34989 ft 429 kts 285°
2026-04-25 10:23 23.19941 43.83185 34991 ft 428 kts 285°
2026-04-25 10:24 23.21803 43.77044 35003 ft 427 kts 285°
2026-04-25 10:24 23.23651 43.70942 35006 ft 427 kts 285°
2026-04-25 10:25 23.25517 43.64769 35010 ft 427 kts 285°
2026-04-25 10:25 23.27362 43.58657 35001 ft 428 kts 285°
2026-04-25 10:26 23.29217 43.52498 35005 ft 428 kts 285°
2026-04-25 10:26 23.30757 43.47370 35013 ft 429 kts 285°
2026-04-25 10:27 23.32608 43.41197 35013 ft 429 kts 285°
2026-04-25 10:27 23.34758 43.34018 35014 ft 429 kts 285°
2026-04-25 10:28 23.36306 43.28841 35017 ft 429 kts 285°
2026-04-25 10:28 23.38140 43.22697 35010 ft 429 kts 285°
2026-04-25 10:29 23.39980 43.16523 35017 ft 429 kts 285°
2026-04-25 10:29 23.41817 43.10340 35023 ft 429 kts 285°
2026-04-25 10:30 23.43644 43.04153 35014 ft 428 kts 285°
2026-04-25 10:30 23.45462 42.97988 35022 ft 426 kts 285°
2026-04-25 10:31 23.47264 42.91871 35006 ft 422 kts 285°
2026-04-25 10:31 23.49047 42.85810 35004 ft 418 kts 285°
2026-04-25 10:32 23.50811 42.79799 35004 ft 416 kts 285°
2026-04-25 10:32 23.52562 42.73834 35002 ft 416 kts 285°
2026-04-25 10:33 23.54334 42.67833 34996 ft 417 kts 285°
2026-04-25 10:33 23.56116 42.61799 34998 ft 418 kts 285°
2026-04-25 10:34 23.57899 42.55749 34993 ft 420 kts 285°
2026-04-25 10:34 23.59683 42.49681 34986 ft 421 kts 285°
2026-04-25 10:35 23.61471 42.43591 34982 ft 422 kts 285°
2026-04-25 10:35 23.63247 42.37530 34987 ft 423 kts 285°
2026-04-25 10:36 23.65033 42.31430 34975 ft 422 kts 285°
2026-04-25 10:36 23.66808 42.25332 34973 ft 422 kts 285°
2026-04-25 10:37 23.68568 42.19217 34980 ft 421 kts 285°
2026-04-25 10:37 23.70320 42.13122 34978 ft 420 kts 285°
2026-04-25 10:38 23.72066 42.07043 34964 ft 419 kts 285°
2026-04-25 10:38 23.73806 42.00976 34967 ft 419 kts 285°
2026-04-25 10:39 23.75545 41.94947 34973 ft 419 kts 285°
2026-04-25 10:39 23.77320 41.88854 34984 ft 419 kts 285°
2026-04-25 10:40 23.79072 41.82825 34981 ft 419 kts 285°
2026-04-25 10:40 23.80832 41.76750 34971 ft 420 kts 284°
2026-04-25 10:41 23.82586 41.70655 34972 ft 420 kts 284°
2026-04-25 10:41 23.84336 41.64553 34964 ft 422 kts 284°
2026-04-25 10:42 23.86090 41.58433 34974 ft 422 kts 284°
2026-04-25 10:42 23.87845 41.52298 34971 ft 423 kts 284°
2026-04-25 10:43 23.89587 41.46189 34972 ft 424 kts 284°
2026-04-25 10:43 23.91343 41.40022 34988 ft 425 kts 284°
2026-04-25 10:44 23.93097 41.33854 34968 ft 425 kts 284°
2026-04-25 10:44 23.94850 41.27676 34971 ft 426 kts 284°
2026-04-25 10:45 23.96606 41.21475 34989 ft 426 kts 284°
2026-04-25 10:45 23.98357 41.15281 34976 ft 427 kts 284°
2026-04-25 10:46 24.00107 41.09082 34977 ft 426 kts 284°
2026-04-25 10:46 24.01852 41.02885 34978 ft 426 kts 284°
2026-04-25 10:47 24.03582 40.96736 34992 ft 426 kts 284°
2026-04-25 10:47 24.05320 40.90544 35019 ft 425 kts 284°
2026-04-25 10:48 24.07051 40.84361 34995 ft 424 kts 284°
2026-04-25 10:48 24.08773 40.78199 34987 ft 422 kts 284°
2026-04-25 10:49 24.10485 40.72065 34986 ft 421 kts 284°
2026-04-25 10:49 24.12190 40.65943 34990 ft 420 kts 284°
2026-04-25 10:50 24.13889 40.59831 34988 ft 420 kts 284°
2026-04-25 10:50 24.15605 40.53717 34990 ft 421 kts 285°
2026-04-25 10:51 24.17926 40.47798 34983 ft 426 kts 293°
2026-04-25 10:51 24.20715 40.42056 34993 ft 427 kts 292°
2026-04-25 10:52 24.23480 40.36295 34977 ft 427 kts 292°
2026-04-25 10:52 24.26223 40.30555 34982 ft 427 kts 292°
2026-04-25 10:53 24.28977 40.24779 34992 ft 427 kts 292°
2026-04-25 10:53 24.31731 40.18998 34979 ft 427 kts 292°
2026-04-25 10:54 24.34477 40.13227 34968 ft 426 kts 292°
2026-04-25 10:54 24.37216 40.07465 34964 ft 426 kts 292°
2026-04-25 10:55 24.39950 40.01705 34973 ft 425 kts 292°
2026-04-25 10:55 24.42678 39.95952 34955 ft 424 kts 292°
2026-04-25 10:56 24.45378 39.90247 34944 ft 423 kts 292°
2026-04-25 10:56 24.48088 39.84516 34943 ft 422 kts 292°
2026-04-25 10:57 24.50796 39.78781 34946 ft 423 kts 292°
2026-04-25 10:57 24.53789 39.73194 34935 ft 430 kts 301°
2026-04-25 10:58 24.57802 39.68243 34943 ft 438 kts 308°
2026-04-25 10:58 24.62645 39.64022 34947 ft 447 kts 315°
2026-04-25 10:59 24.67709 39.60062 34943 ft 446 kts 315°
2026-04-25 10:59 24.72726 39.56115 34950 ft 444 kts 315°
2026-04-25 11:00 24.77735 39.52129 34942 ft 444 kts 315°
2026-04-25 11:00 24.82733 39.48131 34934 ft 444 kts 314°
2026-04-25 11:01 24.87728 39.44126 34937 ft 444 kts 314°
2026-04-25 11:01 24.92721 39.40122 34947 ft 443 kts 315°
2026-04-25 11:02 24.97708 39.36119 34929 ft 443 kts 314°
2026-04-25 11:02 25.02685 39.32121 34937 ft 443 kts 314°
2026-04-25 11:03 25.07627 39.28148 34934 ft 442 kts 314°
2026-04-25 11:03 25.12596 39.24145 34930 ft 442 kts 314°
2026-04-25 11:04 25.17558 39.20145 34932 ft 441 kts 314°
2026-04-25 11:04 25.21974 39.15628 34937 ft 427 kts 304°
2026-04-25 11:05 25.25682 39.10566 34929 ft 419 kts 296°
2026-04-25 11:05 25.28856 39.05151 34923 ft 419 kts 297°
2026-04-25 11:06 25.31999 38.99721 34914 ft 420 kts 296°
2026-04-25 11:06 25.35142 38.94316 34913 ft 421 kts 296°
2026-04-25 11:07 25.38321 38.88864 34925 ft 422 kts 296°
2026-04-25 11:07 25.41499 38.83411 34895 ft 422 kts 296°
2026-04-25 11:08 25.44686 38.77944 34888 ft 422 kts 296°
2026-04-25 11:08 25.47861 38.72493 34895 ft 421 kts 296°
2026-04-25 11:09 25.51031 38.67040 34886 ft 421 kts 296°
2026-04-25 11:09 25.54177 38.61623 34882 ft 420 kts 296°
2026-04-25 11:10 25.57337 38.56175 34879 ft 420 kts 296°
2026-04-25 11:10 25.60494 38.50724 34880 ft 420 kts 296°
2026-04-25 11:11 25.63649 38.45272 34873 ft 420 kts 295°
2026-04-25 11:11 25.66801 38.39819 34874 ft 420 kts 295°
2026-04-25 11:12 25.69949 38.34365 34879 ft 420 kts 295°
2026-04-25 11:12 25.73094 38.28912 34870 ft 419 kts 295°
2026-04-25 11:13 25.76231 38.23464 34871 ft 419 kts 295°
2026-04-25 11:13 25.79343 38.18052 34900 ft 418 kts 295°
2026-04-25 11:14 25.81967 38.13487 34881 ft 418 kts 295°
2026-04-25 11:14 25.85074 38.08082 34879 ft 418 kts 295°
2026-04-25 11:15 25.88195 38.02630 34884 ft 419 kts 295°
2026-04-25 11:15 25.91319 37.97173 34891 ft 418 kts 295°
2026-04-25 11:16 25.96003 37.88985 34915 ft 417 kts 295°
2026-04-25 11:16 25.98834 37.83405 34910 ft 409 kts 287°
2026-04-25 11:17 26.00752 37.77492 34919 ft 405 kts 282°
2026-04-25 11:17 26.01882 37.71395 34933 ft 403 kts 275°
2026-04-25 11:18 26.02682 37.65262 34924 ft 406 kts 275°
2026-04-25 11:18 26.03512 37.59043 34917 ft 406 kts 275°
2026-04-25 11:19 26.04356 37.52836 34919 ft 406 kts 276°
2026-04-25 11:19 26.05195 37.46631 34916 ft 405 kts 276°
2026-04-25 11:20 26.06018 37.40444 34903 ft 404 kts 275°
2026-04-25 11:20 26.06843 37.34254 34899 ft 404 kts 275°
2026-04-25 11:21 26.07655 37.28074 34892 ft 403 kts 275°
2026-04-25 11:21 26.08462 37.21903 34895 ft 403 kts 275°
2026-04-25 11:22 26.09140 37.16776 34897 ft 403 kts 275°
2026-04-25 11:22 26.10083 37.09608 34872 ft 402 kts 275°
2026-04-25 11:23 26.10885 37.03457 34872 ft 402 kts 275°
2026-04-25 11:23 26.11685 36.97308 34889 ft 402 kts 275°
2026-04-25 11:24 26.12483 36.91152 34881 ft 402 kts 275°
2026-04-25 11:24 26.13278 36.84996 34860 ft 402 kts 275°
2026-04-25 11:25 26.14072 36.78833 34878 ft 402 kts 275°
2026-04-25 11:25 26.14859 36.72699 34896 ft 403 kts 275°
2026-04-25 11:26 26.15649 36.66521 34880 ft 403 kts 275°
2026-04-25 11:26 26.16437 36.60345 34879 ft 403 kts 275°
2026-04-25 11:27 26.17294 36.54173 34853 ft 404 kts 281°
2026-04-25 11:27 26.19059 36.49296 34875 ft 413 kts 290°
2026-04-25 11:28 26.22767 36.43009 35076 ft 426 kts 304°
2026-04-25 11:28 26.24831 36.40645 35371 ft 424 kts 305°
2026-04-25 11:28 26.26903 36.38316 35621 ft 422 kts 305°
2026-04-25 11:29 26.28964 36.35999 35911 ft 420 kts 305°
2026-04-25 11:29 26.30988 36.33709 36186 ft 417 kts 304°
2026-04-25 11:29 26.33008 36.31405 36360 ft 416 kts 304°
2026-04-25 11:29 26.35027 36.29086 36480 ft 417 kts 304°
2026-04-25 11:30 26.37048 36.26757 36620 ft 417 kts 304°
2026-04-25 11:30 26.39064 36.24429 36774 ft 417 kts 304°
2026-04-25 11:30 26.43100 36.19760 36868 ft 418 kts 304°
2026-04-25 11:31 26.47099 36.15138 36876 ft 414 kts 304°
2026-04-25 11:31 26.51085 36.10525 36877 ft 411 kts 304°
2026-04-25 11:32 26.55044 36.05934 36880 ft 409 kts 304°
2026-04-25 11:32 26.58991 36.01351 36886 ft 409 kts 304°
2026-04-25 11:33 26.62922 35.96782 36887 ft 410 kts 304°
2026-04-25 11:33 26.66879 35.92179 36913 ft 412 kts 304°
2026-04-25 11:34 26.70856 35.87548 36891 ft 413 kts 304°
2026-04-25 11:34 26.74844 35.82901 36889 ft 414 kts 304°
2026-04-25 11:35 26.78836 35.78244 36889 ft 415 kts 304°
2026-04-25 11:35 26.82830 35.73581 36893 ft 415 kts 304°
2026-04-25 11:36 26.86837 35.68897 36886 ft 416 kts 304°
2026-04-25 11:36 26.90815 35.64242 36887 ft 416 kts 304°
2026-04-25 11:37 26.94817 35.59553 36891 ft 416 kts 304°
2026-04-25 11:37 26.98815 35.54863 36885 ft 416 kts 304°
2026-04-25 11:38 27.02806 35.50176 36889 ft 415 kts 304°
2026-04-25 11:38 27.06800 35.45479 36892 ft 416 kts 304°
2026-04-25 11:39 27.10792 35.40781 36893 ft 416 kts 304°
2026-04-25 11:39 27.14779 35.36084 36889 ft 415 kts 304°
2026-04-25 11:40 27.18762 35.31386 36889 ft 414 kts 303°
2026-04-25 11:40 27.22733 35.26696 36890 ft 414 kts 303°
2026-04-25 11:41 27.26698 35.22008 36890 ft 414 kts 303°
2026-04-25 11:41 27.30632 35.17351 36884 ft 413 kts 303°
2026-04-25 11:42 27.34588 35.12665 36877 ft 413 kts 303°
2026-04-25 11:42 27.38539 35.07977 36877 ft 413 kts 303°
2026-04-25 11:43 27.42491 35.03282 36885 ft 414 kts 303°
2026-04-25 11:43 27.46454 34.98571 36895 ft 414 kts 303°
2026-04-25 11:44 27.50423 34.93848 36876 ft 415 kts 303°
2026-04-25 11:44 27.54593 34.89270 36867 ft 420 kts 306°
2026-04-25 11:45 27.58873 34.84778 36871 ft 420 kts 307°
2026-04-25 11:45 27.63119 34.80311 36868 ft 420 kts 306°
2026-04-25 11:46 27.67381 34.75805 36869 ft 420 kts 306°
2026-04-25 11:46 27.71638 34.71292 36882 ft 420 kts 306°
2026-04-25 11:47 27.75891 34.66777 36883 ft 419 kts 306°
2026-04-25 11:47 27.80149 34.62251 36888 ft 420 kts 306°
2026-04-25 11:48 27.84407 34.57720 36880 ft 421 kts 306°
2026-04-25 11:48 27.88639 34.53214 36881 ft 421 kts 306°
2026-04-25 11:49 27.92899 34.48671 36884 ft 421 kts 306°
2026-04-25 11:49 27.97158 34.44125 36895 ft 421 kts 306°
2026-04-25 11:50 28.01218 34.39419 36889 ft 412 kts 300°
2026-04-25 11:50 28.04828 34.34380 36898 ft 411 kts 300°
2026-04-25 11:51 28.08455 34.29346 36882 ft 412 kts 300°
2026-04-25 11:51 28.12068 34.24340 36887 ft 414 kts 300°
2026-04-25 11:52 28.15720 34.19275 36905 ft 415 kts 300°
2026-04-25 11:52 28.19376 34.14198 36904 ft 416 kts 300°
2026-04-25 11:53 28.23044 34.09110 36910 ft 416 kts 300°
2026-04-25 11:53 28.26705 34.04010 36893 ft 417 kts 300°
2026-04-25 11:54 28.30365 33.98914 36906 ft 416 kts 300°
2026-04-25 11:55 28.35821 33.91303 36917 ft 417 kts 300°
2026-04-25 11:55 28.39496 33.86165 36878 ft 420 kts 300°
2026-04-25 11:56 28.43171 33.81021 36884 ft 419 kts 300°
2026-04-25 11:56 28.46841 33.75887 36919 ft 418 kts 300°
2026-04-25 11:57 28.50509 33.70744 36871 ft 419 kts 300°
2026-04-25 11:57 28.54163 33.65614 36947 ft 417 kts 300°
2026-04-25 11:58 28.57822 33.60459 36909 ft 420 kts 300°
2026-04-25 11:58 28.61488 33.55297 36889 ft 419 kts 300°
2026-04-25 11:59 28.65139 33.50151 36892 ft 417 kts 300°
2026-04-25 11:59 28.68775 33.45029 36880 ft 414 kts 300°
2026-04-25 12:00 28.74167 33.37418 36885 ft 413 kts 300°
2026-04-25 12:01 28.79590 33.29745 36894 ft 414 kts 300°
2026-04-25 12:01 28.82600 33.25479 36888 ft 416 kts 300°
2026-04-25 12:02 28.88063 33.17730 36884 ft 419 kts 300°
2026-04-25 12:02 28.91718 33.12537 36893 ft 420 kts 300°
2026-04-25 12:03 28.95365 33.07349 36888 ft 421 kts 300°
2026-04-25 12:03 28.99035 33.02123 36881 ft 422 kts 300°
2026-04-25 12:04 29.02709 32.96884 36884 ft 422 kts 300°
2026-04-25 12:04 29.06381 32.91642 36883 ft 422 kts 300°
2026-04-25 12:05 29.10044 32.86405 36892 ft 421 kts 300°
2026-04-25 12:05 29.13683 32.81196 36878 ft 421 kts 300°
2026-04-25 12:06 29.17340 32.75955 36883 ft 421 kts 300°
2026-04-25 12:06 29.20988 32.70719 36889 ft 420 kts 300°
2026-04-25 12:07 29.24630 32.65484 36875 ft 420 kts 300°
2026-04-25 12:07 29.28270 32.60247 36889 ft 420 kts 300°
2026-04-25 12:08 29.31887 32.54998 36900 ft 419 kts 300°
2026-04-25 12:08 29.35496 32.49730 36908 ft 421 kts 300°
2026-04-25 12:09 29.39097 32.44464 36891 ft 423 kts 300°
2026-04-25 12:09 29.42730 32.39156 36900 ft 423 kts 300°
2026-04-25 12:10 29.46370 32.33831 36932 ft 424 kts 300°
2026-04-25 12:10 29.50015 32.28489 36926 ft 425 kts 300°
2026-04-25 12:11 29.53664 32.23136 36914 ft 426 kts 300°
2026-04-25 12:11 29.57318 32.17769 36913 ft 426 kts 300°
2026-04-25 12:12 29.60350 32.13309 36902 ft 426 kts 300°
2026-04-25 12:12 29.64603 32.07045 36946 ft 424 kts 300°
2026-04-25 12:13 29.68210 32.01724 36915 ft 424 kts 300°
2026-04-25 12:13 29.71830 31.96377 36917 ft 424 kts 300°
2026-04-25 12:14 29.75454 31.91018 36944 ft 423 kts 300°
2026-04-25 12:14 29.79065 31.85655 36920 ft 424 kts 299°
2026-04-25 12:15 29.82580 31.80198 36910 ft 423 kts 298°
2026-04-25 12:15 29.86084 31.74723 36921 ft 425 kts 298°
2026-04-25 12:16 29.89831 31.69426 36901 ft 437 kts 311°
2026-04-25 12:16 29.92362 31.67387 36917 ft 451 kts 320°
2026-04-25 12:16 29.95176 31.65793 36907 ft 464 kts 329°
2026-04-25 12:17 29.98349 31.64815 36914 ft 479 kts 340°
2026-04-25 12:17 30.01654 31.64222 36909 ft 483 kts 341°
2026-04-25 12:17 30.08337 31.63174 36936 ft 485 kts 342°
2026-04-25 12:18 30.15031 31.62069 36872 ft 486 kts 341°
2026-04-25 12:18 30.21722 31.60886 36863 ft 486 kts 341°
2026-04-25 12:19 30.31748 31.59071 36866 ft 486 kts 341°
2026-04-25 12:20 30.38447 31.57860 36873 ft 487 kts 341°
2026-04-25 12:20 30.45138 31.56652 36867 ft 486 kts 341°
2026-04-25 12:21 30.51773 31.55452 36866 ft 485 kts 341°
2026-04-25 12:21 30.58442 31.54245 36895 ft 484 kts 342°
2026-04-25 12:22 30.65109 31.53034 36872 ft 485 kts 342°
2026-04-25 12:22 30.71776 31.51823 36874 ft 485 kts 342°
2026-04-25 12:23 30.78446 31.50611 36858 ft 485 kts 342°
2026-04-25 12:23 30.85119 31.49399 36882 ft 486 kts 342°
2026-04-25 12:24 30.91801 31.48183 36871 ft 486 kts 342°
2026-04-25 12:24 30.98501 31.46963 36871 ft 487 kts 342°
2026-04-25 12:25 31.05204 31.45740 36869 ft 488 kts 342°
2026-04-25 12:25 31.11878 31.44521 36878 ft 489 kts 343°
2026-04-25 12:26 31.18614 31.43288 36873 ft 489 kts 343°
2026-04-25 12:26 31.25250 31.42073 36873 ft 489 kts 343°
2026-04-25 12:27 31.32042 31.40809 36870 ft 489 kts 342°
2026-04-25 12:27 31.38720 31.39553 36881 ft 489 kts 343°
2026-04-25 12:28 31.45452 31.38288 36877 ft 490 kts 343°
2026-04-25 12:28 31.52179 31.37025 36883 ft 490 kts 343°
2026-04-25 12:29 31.58972 31.35963 36919 ft 494 kts 347°
2026-04-25 12:29 31.65854 31.35290 36898 ft 496 kts 348°
2026-04-25 12:30 31.72742 31.34628 36889 ft 496 kts 347°
2026-04-25 12:30 31.79628 31.33923 36898 ft 496 kts 347°
2026-04-25 12:31 31.86468 31.33214 36894 ft 497 kts 347°
2026-04-25 12:31 31.93355 31.32496 36890 ft 497 kts 347°
2026-04-25 12:32 32.00242 31.31773 36890 ft 497 kts 347°
2026-04-25 12:32 32.07130 31.31050 36919 ft 497 kts 348°
2026-04-25 12:33 32.14019 31.30332 36893 ft 497 kts 348°
2026-04-25 12:33 32.20913 31.29607 36889 ft 497 kts 348°
2026-04-25 12:34 32.27803 31.28859 36894 ft 497 kts 348°
2026-04-25 12:34 32.34688 31.28110 36900 ft 497 kts 348°
2026-04-25 12:35 32.41574 31.27363 36893 ft 497 kts 348°
2026-04-25 12:35 32.48462 31.26616 36901 ft 496 kts 348°
2026-04-25 12:36 32.55296 31.25659 36926 ft 490 kts 341°
2026-04-25 12:36 32.61739 31.23342 36912 ft 480 kts 331°
2026-04-25 12:37 32.67683 31.19950 36914 ft 476 kts 327°
2026-04-25 12:37 32.73602 31.16412 36901 ft 477 kts 327°
2026-04-25 12:38 32.79545 31.12901 36900 ft 477 kts 327°
2026-04-25 12:38 32.85501 31.09409 36914 ft 478 kts 328°
2026-04-25 12:39 32.91478 31.05905 36905 ft 479 kts 328°
2026-04-25 12:39 32.97452 31.02395 36901 ft 479 kts 328°
2026-04-25 12:40 33.03437 30.98871 36902 ft 479 kts 328°
2026-04-25 12:40 33.09418 30.95344 36914 ft 479 kts 327°
2026-04-25 12:41 33.15233 30.91502 36906 ft 477 kts 324°
2026-04-25 12:41 33.20932 30.87532 36903 ft 477 kts 324°
2026-04-25 12:42 33.26668 30.83533 36904 ft 477 kts 324°
2026-04-25 12:42 33.32421 30.79545 36902 ft 477 kts 324°
2026-04-25 12:43 33.38174 30.75565 36924 ft 477 kts 325°
2026-04-25 12:43 33.46802 30.69586 36911 ft 477 kts 325°
2026-04-25 12:44 33.52549 30.65595 36914 ft 477 kts 325°
2026-04-25 12:45 33.61140 30.59616 36914 ft 477 kts 325°
2026-04-25 12:45 33.69754 30.53606 36908 ft 477 kts 325°
2026-04-25 12:46 33.75493 30.49594 36907 ft 477 kts 325°
2026-04-25 12:46 33.81237 30.45574 36907 ft 477 kts 325°
2026-04-25 12:47 33.86979 30.41547 36909 ft 477 kts 325°
2026-04-25 12:47 33.92716 30.37518 36913 ft 478 kts 325°
2026-04-25 12:48 33.97489 30.34161 36913 ft 478 kts 325°
2026-04-25 12:48 34.04166 30.29458 36912 ft 478 kts 325°
2026-04-25 12:49 34.08974 30.26065 36910 ft 478 kts 325°
2026-04-25 12:49 34.14681 30.22033 36913 ft 478 kts 325°
2026-04-25 12:50 34.20423 30.17969 36910 ft 478 kts 325°
2026-04-25 12:50 34.26157 30.13905 36916 ft 478 kts 325°
2026-04-25 12:51 34.31899 30.09827 36921 ft 479 kts 325°
2026-04-25 12:51 34.37646 30.05740 36911 ft 479 kts 325°
2026-04-25 12:52 34.43377 30.01615 36914 ft 477 kts 322°
2026-04-25 12:52 34.48539 29.96659 36913 ft 470 kts 310°
2026-04-25 12:53 34.53099 29.90997 36920 ft 469 kts 310°
2026-04-25 12:53 34.57642 29.85304 36920 ft 469 kts 310°
2026-04-25 12:54 34.62178 29.79665 36923 ft 470 kts 310°
2026-04-25 12:54 34.66754 29.73995 36915 ft 470 kts 310°
2026-04-25 12:55 34.70593 29.69235 36914 ft 469 kts 310°
2026-04-25 12:55 34.75896 29.62647 36915 ft 468 kts 310°
2026-04-25 12:56 34.80442 29.56987 36908 ft 467 kts 310°
2026-04-25 12:56 34.84984 29.51321 36928 ft 468 kts 310°
2026-04-25 12:57 34.89533 29.45638 36919 ft 469 kts 310°
2026-04-25 12:57 34.94057 29.39975 36913 ft 470 kts 310°
2026-04-25 12:58 34.98635 29.34277 36910 ft 472 kts 312°
2026-04-25 12:58 35.03761 29.29195 36917 ft 476 kts 319°
2026-04-25 12:59 35.09103 29.24400 36929 ft 477 kts 319°
2026-04-25 12:59 35.14463 29.19567 36921 ft 478 kts 319°
2026-04-25 13:00 35.18903 29.15522 36921 ft 479 kts 319°
2026-04-25 13:00 35.25144 29.09804 36917 ft 480 kts 319°
2026-04-25 13:01 35.30465 29.04918 36911 ft 480 kts 319°
2026-04-25 13:01 35.35822 28.99991 36915 ft 481 kts 319°
2026-04-25 13:02 35.41164 28.95071 36927 ft 481 kts 319°
2026-04-25 13:02 35.46516 28.90134 36916 ft 481 kts 319°
2026-04-25 13:03 35.51863 28.85193 36910 ft 481 kts 319°
2026-04-25 13:03 35.57162 28.80290 36908 ft 479 kts 319°
2026-04-25 13:04 35.62506 28.75333 36913 ft 482 kts 319°
2026-04-25 13:04 35.67876 28.70343 36914 ft 484 kts 319°
2026-04-25 13:05 35.73272 28.65323 36933 ft 486 kts 319°
2026-04-25 13:05 35.78668 28.60293 36924 ft 487 kts 320°
2026-04-25 13:06 35.84050 28.55269 36920 ft 488 kts 320°
2026-04-25 13:06 35.89450 28.50219 36916 ft 487 kts 320°
2026-04-25 13:07 35.94838 28.45170 36923 ft 486 kts 320°
2026-04-25 13:07 36.00212 28.40125 36920 ft 484 kts 319°
2026-04-25 13:08 36.05571 28.35085 36924 ft 483 kts 320°
2026-04-25 13:08 36.10925 28.30042 36926 ft 483 kts 320°
2026-04-25 13:09 36.16239 28.25028 36927 ft 483 kts 320°
2026-04-25 13:09 36.21583 28.19976 36926 ft 483 kts 320°
2026-04-25 13:10 36.26936 28.14905 36929 ft 484 kts 320°
2026-04-25 13:10 36.32291 28.09826 36944 ft 485 kts 320°
2026-04-25 13:11 36.37414 28.04408 36953 ft 483 kts 315°
2026-04-25 13:11 36.42328 27.98682 36938 ft 484 kts 314°
2026-04-25 13:12 36.47199 27.92987 36938 ft 483 kts 315°
2026-04-25 13:12 36.51313 27.88202 36933 ft 483 kts 315°
2026-04-25 13:13 36.57028 27.81570 36921 ft 483 kts 315°
2026-04-25 13:13 36.61939 27.75865 36925 ft 483 kts 315°
2026-04-25 13:14 36.66854 27.70142 36930 ft 482 kts 315°
2026-04-25 13:14 36.71752 27.64428 36930 ft 482 kts 315°
2026-04-25 13:15 36.76642 27.58711 36921 ft 482 kts 315°
2026-04-25 13:15 36.81523 27.52997 36934 ft 481 kts 315°
2026-04-25 13:16 36.86400 27.47275 36947 ft 481 kts 315°
2026-04-25 13:16 36.91245 27.41579 36945 ft 482 kts 315°
2026-04-25 13:17 36.96128 27.35830 36941 ft 483 kts 315°
2026-04-25 13:17 37.01014 27.30065 36958 ft 483 kts 315°
2026-04-25 13:18 37.05905 27.24285 36962 ft 483 kts 315°
2026-04-25 13:18 37.10802 27.18486 36952 ft 485 kts 315°
2026-04-25 13:19 37.15700 27.12675 36952 ft 484 kts 315°
2026-04-25 13:19 37.18963 27.08799 36953 ft 482 kts 315°
2026-04-25 13:20 37.24614 27.02072 36954 ft 480 kts 315°
2026-04-25 13:20 37.30268 26.95328 36958 ft 478 kts 315°
2026-04-25 13:21 37.35052 26.89610 36976 ft 479 kts 315°
2026-04-25 13:21 37.39892 26.83822 36961 ft 479 kts 316°
2026-04-25 13:22 37.44911 26.78304 36963 ft 479 kts 319°
2026-04-25 13:23 37.52558 26.70162 36973 ft 479 kts 318°
2026-04-25 13:23 37.57601 26.64724 36973 ft 480 kts 319°
2026-04-25 13:24 37.62676 26.59223 36966 ft 481 kts 318°
2026-04-25 13:24 37.67752 26.53715 36974 ft 482 kts 319°
2026-04-25 13:25 37.72834 26.48181 36976 ft 482 kts 318°
2026-04-25 13:25 37.77917 26.42621 36977 ft 483 kts 318°
2026-04-25 13:26 37.82999 26.37052 36984 ft 484 kts 318°
2026-04-25 13:26 37.88085 26.31475 36983 ft 483 kts 318°
2026-04-25 13:27 37.93172 26.25905 36983 ft 483 kts 318°
2026-04-25 13:27 37.98220 26.20370 36987 ft 483 kts 319°
2026-04-25 13:28 38.03294 26.14792 36983 ft 482 kts 319°
2026-04-25 13:28 38.08357 26.09217 36988 ft 481 kts 318°
2026-04-25 13:29 38.13407 26.03649 36986 ft 480 kts 319°
2026-04-25 13:29 38.18453 25.98074 36991 ft 480 kts 319°
2026-04-25 13:30 38.26028 25.89750 36990 ft 480 kts 322°
2026-04-25 13:31 38.33949 25.82012 36993 ft 480 kts 323°
2026-04-25 13:31 38.39283 25.76879 36991 ft 481 kts 323°
2026-04-25 13:32 38.44614 25.71699 36990 ft 482 kts 323°
2026-04-25 13:32 38.49933 25.66498 36993 ft 482 kts 323°
2026-04-25 13:33 38.55256 25.61277 36992 ft 483 kts 324°
2026-04-25 13:33 38.60589 25.56038 36991 ft 483 kts 324°
2026-04-25 13:34 38.65912 25.50799 36994 ft 483 kts 324°
2026-04-25 13:34 38.71244 25.45542 36992 ft 483 kts 324°
2026-04-25 13:35 38.75664 25.41177 36992 ft 483 kts 324°
2026-04-25 13:35 38.81840 25.35065 37001 ft 482 kts 324°
2026-04-25 13:36 38.86296 25.30647 36998 ft 482 kts 324°
2026-04-25 13:36 38.91575 25.25403 37099 ft 484 kts 324°
2026-04-25 13:36 38.94230 25.22763 37318 ft 483 kts 324°
2026-04-25 13:37 38.96882 25.20122 37653 ft 480 kts 324°
2026-04-25 13:37 38.99515 25.17496 37916 ft 479 kts 323°
2026-04-25 13:37 39.02160 25.14858 37951 ft 481 kts 323°
2026-04-25 13:38 39.07449 25.09575 37997 ft 481 kts 323°
2026-04-25 13:38 39.12709 25.04309 38000 ft 477 kts 323°
2026-04-25 13:39 39.17933 24.99069 38000 ft 474 kts 324°
2026-04-25 13:39 39.23123 24.93854 38008 ft 473 kts 324°
2026-04-25 13:40 39.28297 24.88645 38014 ft 475 kts 324°
2026-04-25 13:40 39.33517 24.83379 38021 ft 477 kts 323°
2026-04-25 13:41 39.38755 24.78094 38011 ft 478 kts 323°
2026-04-25 13:41 39.43993 24.72786 38010 ft 478 kts 323°
2026-04-25 13:42 39.49228 24.67504 38003 ft 476 kts 323°
2026-04-25 13:42 39.54426 24.62207 38017 ft 475 kts 323°
2026-04-25 13:43 39.59612 24.56906 38020 ft 474 kts 323°
2026-04-25 13:43 39.64762 24.51642 38021 ft 473 kts 323°
2026-04-25 13:44 39.69927 24.46360 38025 ft 472 kts 323°
2026-04-25 13:44 39.75081 24.41079 38017 ft 472 kts 323°
2026-04-25 13:45 39.80231 24.35793 38012 ft 472 kts 323°
2026-04-25 13:45 39.85379 24.30497 38021 ft 472 kts 323°
2026-04-25 13:46 39.90538 24.25179 38027 ft 473 kts 323°
2026-04-25 13:46 39.95707 24.19841 38024 ft 474 kts 323°
2026-04-25 13:47 40.00882 24.14486 38030 ft 475 kts 323°
2026-04-25 13:47 40.06065 24.09111 38025 ft 476 kts 323°
2026-04-25 13:48 40.11249 24.03725 38020 ft 476 kts 324°
2026-04-25 13:48 40.16399 23.98363 38023 ft 476 kts 324°
2026-04-25 13:49 40.21594 23.92944 38022 ft 476 kts 324°
2026-04-25 13:49 40.26773 23.87530 38028 ft 476 kts 324°
2026-04-25 13:50 40.31921 23.82138 38025 ft 476 kts 324°
2026-04-25 13:50 40.37126 23.76675 38029 ft 475 kts 324°
2026-04-25 13:51 40.42249 23.71287 38020 ft 475 kts 324°
2026-04-25 13:51 40.47395 23.65863 38026 ft 474 kts 324°
2026-04-25 13:52 40.52523 23.60450 38028 ft 473 kts 324°
2026-04-25 13:52 40.57652 23.55023 38028 ft 472 kts 324°
2026-04-25 13:53 40.62771 23.49596 38040 ft 471 kts 324°
2026-04-25 13:53 40.67867 23.44182 38020 ft 470 kts 324°
2026-04-25 13:54 40.72948 23.38773 38015 ft 469 kts 324°
2026-04-25 13:54 40.78017 23.33367 38020 ft 469 kts 324°
2026-04-25 13:55 40.83051 23.27986 38025 ft 468 kts 324°
2026-04-25 13:55 40.88116 23.22562 38032 ft 468 kts 324°
2026-04-25 13:56 40.93169 23.17139 38030 ft 468 kts 324°
2026-04-25 13:56 40.98219 23.11707 38030 ft 468 kts 324°
2026-04-25 13:57 41.03278 23.06255 38028 ft 468 kts 324°
2026-04-25 13:57 41.08326 23.00793 38026 ft 468 kts 322°
2026-04-25 13:58 41.12865 22.94646 38031 ft 472 kts 313°
2026-04-25 13:58 41.17048 22.87928 38024 ft 472 kts 313°
2026-04-25 13:59 41.21251 22.81238 38019 ft 471 kts 313°
2026-04-25 13:59 41.25477 22.74588 38023 ft 470 kts 314°
2026-04-25 14:00 41.29848 22.68123 38034 ft 470 kts 316°
2026-04-25 14:00 41.34277 22.61742 38029 ft 470 kts 316°
2026-04-25 14:01 41.38698 22.55315 38032 ft 470 kts 315°
2026-04-25 14:01 41.43064 22.48910 38028 ft 470 kts 315°
2026-04-25 14:02 41.47457 22.42433 38020 ft 470 kts 315°
2026-04-25 14:02 41.51835 22.35965 38032 ft 469 kts 315°
2026-04-25 14:03 41.56209 22.29490 38027 ft 470 kts 315°
2026-04-25 14:03 41.60583 22.23003 38027 ft 470 kts 315°
2026-04-25 14:04 41.64926 22.16548 38027 ft 469 kts 315°
2026-04-25 14:04 41.69285 22.10054 38019 ft 469 kts 315°
2026-04-25 14:05 41.73639 22.03554 38028 ft 468 kts 315°
2026-04-25 14:05 41.77981 21.97057 38017 ft 467 kts 314°
2026-04-25 14:06 41.82310 21.90565 38013 ft 466 kts 314°
2026-04-25 14:06 41.86630 21.84072 38006 ft 466 kts 314°
2026-04-25 14:07 41.90939 21.77584 37989 ft 466 kts 314°
2026-04-25 14:07 41.95246 21.71082 37994 ft 465 kts 314°
2026-04-25 14:08 41.99543 21.64582 37989 ft 465 kts 314°
2026-04-25 14:08 42.03800 21.58128 37993 ft 464 kts 314°
2026-04-25 14:09 42.08086 21.51613 38026 ft 463 kts 314°
2026-04-25 14:09 42.12351 21.45119 38038 ft 462 kts 314°
2026-04-25 14:10 42.16610 21.38613 38040 ft 463 kts 313°
2026-04-25 14:10 42.20803 21.32016 38046 ft 463 kts 313°
2026-04-25 14:11 42.24965 21.25378 38052 ft 463 kts 313°
2026-04-25 14:11 42.29133 21.18732 38050 ft 464 kts 313°
2026-04-25 14:12 42.33303 21.12086 38040 ft 463 kts 312°
2026-04-25 14:12 42.37450 21.05466 38049 ft 460 kts 312°
2026-04-25 14:13 42.41554 20.98902 38051 ft 459 kts 312°
2026-04-25 14:13 42.45666 20.92308 38044 ft 458 kts 312°
2026-04-25 14:14 42.49770 20.85713 38053 ft 457 kts 312°
2026-04-25 14:14 42.53868 20.79113 38040 ft 457 kts 312°
2026-04-25 14:15 42.57961 20.72507 38043 ft 457 kts 312°
2026-04-25 14:15 42.62051 20.65889 38053 ft 457 kts 312°
2026-04-25 14:16 42.66115 20.59299 38044 ft 458 kts 312°
2026-04-25 14:16 42.70208 20.52648 38045 ft 459 kts 312°
2026-04-25 14:17 42.74300 20.45986 38027 ft 459 kts 311°
2026-04-25 14:17 42.78390 20.39310 38037 ft 459 kts 311°
2026-04-25 14:18 42.82479 20.32614 38045 ft 459 kts 311°
2026-04-25 14:18 42.86358 20.25666 38038 ft 461 kts 307°
2026-04-25 14:19 42.90084 20.18557 38041 ft 461 kts 307°
2026-04-25 14:19 42.93814 20.11412 38039 ft 461 kts 307°
2026-04-25 14:20 42.97531 20.04315 38027 ft 462 kts 307°
2026-04-25 14:20 43.01268 19.97187 38056 ft 461 kts 307°
2026-04-25 14:21 43.04948 19.90155 38027 ft 461 kts 307°
2026-04-25 14:21 43.08677 19.83012 38029 ft 461 kts 307°
2026-04-25 14:22 43.12391 19.75879 38047 ft 460 kts 307°
2026-04-25 14:22 43.15473 19.69947 38044 ft 459 kts 307°
2026-04-25 14:23 43.19175 19.62806 38038 ft 459 kts 307°
2026-04-25 14:23 43.23468 19.54503 38048 ft 459 kts 307°
2026-04-25 14:24 43.26555 19.48518 38038 ft 459 kts 307°
2026-04-25 14:24 43.30238 19.41361 38044 ft 459 kts 307°
2026-04-25 14:25 43.33897 19.34236 38038 ft 459 kts 306°
2026-04-25 14:25 43.37573 19.27057 38040 ft 459 kts 306°
2026-04-25 14:26 43.41244 19.19872 38039 ft 459 kts 306°
2026-04-25 14:26 43.44906 19.12686 38039 ft 458 kts 306°
2026-04-25 14:27 43.48564 19.05493 38027 ft 458 kts 306°
2026-04-25 14:27 43.52213 18.98298 38014 ft 458 kts 306°
2026-04-25 14:28 43.55858 18.91093 38029 ft 458 kts 306°
2026-04-25 14:28 43.59500 18.83877 38031 ft 458 kts 305°
2026-04-25 14:29 43.63115 18.76698 38042 ft 458 kts 305°
2026-04-25 14:29 43.66747 18.69464 38031 ft 458 kts 305°
2026-04-25 14:30 43.69783 18.63407 38023 ft 458 kts 305°
2026-04-25 14:30 43.75792 18.51379 38020 ft 457 kts 305°
2026-04-25 14:31 43.79399 18.44134 38025 ft 456 kts 305°
2026-04-25 14:31 43.82999 18.36885 38019 ft 456 kts 304°
2026-04-25 14:32 43.86591 18.29635 38019 ft 456 kts 304°
2026-04-25 14:32 43.90161 18.22413 38022 ft 456 kts 304°
2026-04-25 14:33 43.93716 18.15200 38031 ft 455 kts 304°
2026-04-25 14:33 43.97288 18.07939 38029 ft 455 kts 304°
2026-04-25 14:34 44.00850 18.00679 38022 ft 454 kts 304°
2026-04-25 14:34 44.04404 17.93414 38020 ft 454 kts 304°
2026-04-25 14:35 44.07949 17.86153 38025 ft 453 kts 304°
2026-04-25 14:35 44.11486 17.78887 38026 ft 454 kts 304°
2026-04-25 14:36 44.15020 17.71611 38019 ft 454 kts 304°
2026-04-25 14:36 44.18535 17.64358 38027 ft 453 kts 303°
2026-04-25 14:37 44.22063 17.57055 38039 ft 453 kts 303°
2026-04-25 14:37 44.25581 17.49757 38032 ft 452 kts 303°
2026-04-25 14:38 44.29088 17.42463 38032 ft 451 kts 303°
2026-04-25 14:38 44.32582 17.35180 38020 ft 451 kts 303°
2026-04-25 14:39 44.36071 17.27887 38019 ft 451 kts 303°
2026-04-25 14:39 44.39551 17.20595 38021 ft 451 kts 303°
2026-04-25 14:40 44.43011 17.13325 38011 ft 451 kts 303°
2026-04-25 14:40 44.46486 17.06008 38005 ft 452 kts 303°
2026-04-25 14:41 44.49962 16.98668 38016 ft 452 kts 302°
2026-04-25 14:41 44.53430 16.91327 38008 ft 452 kts 302°
2026-04-25 14:42 44.56307 16.85223 38003 ft 452 kts 302°
2026-04-25 14:42 44.60349 16.76625 38000 ft 451 kts 302°
2026-04-25 14:43 44.63800 16.69264 37999 ft 451 kts 302°
2026-04-25 14:43 44.67237 16.61913 38000 ft 450 kts 302°
2026-04-25 14:44 44.70649 16.54598 37992 ft 450 kts 302°
2026-04-25 14:44 44.74075 16.47235 37992 ft 450 kts 302°
2026-04-25 14:45 44.77499 16.39855 37993 ft 450 kts 302°
2026-04-25 14:45 44.80913 16.32479 37996 ft 450 kts 302°
2026-04-25 14:46 44.84323 16.25093 37997 ft 449 kts 302°
2026-04-25 14:46 44.87721 16.17712 37992 ft 448 kts 301°
2026-04-25 14:47 44.90539 16.11578 37982 ft 448 kts 301°
2026-04-25 14:47 44.94495 16.02943 37980 ft 448 kts 301°
2026-04-25 14:48 44.97873 15.95551 37985 ft 447 kts 301°
2026-04-25 14:48 45.01246 15.88149 37985 ft 448 kts 301°
2026-04-25 14:49 45.04595 15.80781 37989 ft 448 kts 301°
2026-04-25 14:49 45.07955 15.73369 38005 ft 448 kts 301°
2026-04-25 14:50 45.11313 15.65944 37995 ft 447 kts 301°
2026-04-25 14:50 45.14666 15.58508 37996 ft 447 kts 301°
2026-04-25 14:51 45.18010 15.51076 37980 ft 447 kts 300°
2026-04-25 14:51 45.21321 15.43694 37990 ft 446 kts 300°
2026-04-25 14:52 45.24645 15.36267 37993 ft 446 kts 300°
2026-04-25 14:52 45.27427 15.30035 37985 ft 446 kts 300°
2026-04-25 14:53 45.31278 15.21384 37992 ft 446 kts 300°
2026-04-25 14:53 45.34590 15.13923 38002 ft 446 kts 300°
2026-04-25 14:54 45.37900 15.06447 37992 ft 446 kts 300°
2026-04-25 14:54 45.41198 14.98979 38002 ft 445 kts 300°
2026-04-25 14:55 45.44489 14.91508 37990 ft 444 kts 300°
2026-04-25 14:55 45.47768 14.84110 37993 ft 444 kts 301°
2026-04-25 14:56 45.51249 14.76825 37997 ft 444 kts 302°
2026-04-25 14:56 45.54770 14.69565 37990 ft 445 kts 302°
2026-04-25 14:57 45.58267 14.62278 38026 ft 444 kts 302°
2026-04-25 14:57 45.61736 14.54985 38025 ft 444 kts 301°
2026-04-25 14:58 45.65184 14.47705 38032 ft 444 kts 301°
2026-04-25 14:58 45.68648 14.40372 38009 ft 445 kts 301°
2026-04-25 14:59 45.72108 14.33028 38001 ft 445 kts 301°
2026-04-25 14:59 45.75566 14.25675 38012 ft 445 kts 301°
2026-04-25 15:00 45.79020 14.18307 38009 ft 445 kts 301°
2026-04-25 15:00 45.82468 14.10933 38015 ft 444 kts 301°
2026-04-25 15:01 45.85882 14.03613 38018 ft 444 kts 301°
2026-04-25 15:01 45.89316 13.96230 38013 ft 444 kts 301°
2026-04-25 15:02 45.92740 13.88851 38027 ft 444 kts 301°
2026-04-25 15:02 45.96160 13.81461 38028 ft 443 kts 300°
2026-04-25 15:03 45.99573 13.74064 38022 ft 444 kts 300°
2026-04-25 15:03 46.02980 13.66663 38028 ft 444 kts 300°
2026-04-25 15:04 46.06347 13.59214 38020 ft 443 kts 297°
2026-04-25 15:04 46.09345 13.51529 38022 ft 443 kts 296°
2026-04-25 15:05 46.12308 13.43745 38026 ft 443 kts 296°
2026-04-25 15:06 46.16769 13.32046 38014 ft 444 kts 296°
2026-04-25 15:06 46.19752 13.24234 38019 ft 444 kts 296°
2026-04-25 15:07 46.22736 13.16401 38011 ft 446 kts 296°
2026-04-25 15:07 46.25725 13.08535 38010 ft 447 kts 296°
2026-04-25 15:08 46.28712 13.00650 38014 ft 447 kts 296°
2026-04-25 15:08 46.31697 12.92747 38001 ft 448 kts 296°
2026-04-25 15:09 46.34166 12.86183 37978 ft 447 kts 296°
2026-04-25 15:09 46.38624 12.74318 38005 ft 447 kts 296°
2026-04-25 15:10 46.41577 12.66425 37999 ft 449 kts 295°
2026-04-25 15:11 46.46036 12.54445 38002 ft 451 kts 296°
2026-04-25 15:11 46.49015 12.46430 38012 ft 450 kts 296°
2026-04-25 15:12 46.53415 12.34371 38025 ft 451 kts 296°
2026-04-25 15:12 46.55903 12.27718 38024 ft 450 kts 296°
2026-04-25 15:13 46.60829 12.14379 37966 ft 448 kts 296°
2026-04-25 15:14 46.63749 12.06398 37967 ft 447 kts 295°
2026-04-25 15:14 46.66662 11.98399 37967 ft 447 kts 295°
2026-04-25 15:15 46.69544 11.90471 37992 ft 446 kts 295°
2026-04-25 15:15 46.72452 11.82441 37945 ft 450 kts 295°
2026-04-25 15:16 46.75365 11.74386 37973 ft 449 kts 295°
2026-04-25 15:16 46.79726 11.62275 37995 ft 449 kts 295°
2026-04-25 15:17 46.84074 11.50139 37981 ft 449 kts 295°
2026-04-25 15:18 46.86963 11.42054 37997 ft 448 kts 296°
2026-04-25 15:18 46.91275 11.29921 38032 ft 449 kts 295°
2026-04-25 15:19 46.93768 11.23254 38016 ft 451 kts 301°
2026-04-25 15:19 46.98283 11.14763 38039 ft 455 kts 310°
2026-04-25 15:20 47.02603 11.07979 38054 ft 455 kts 311°
2026-04-25 15:20 47.06899 11.01238 38053 ft 455 kts 311°
2026-04-25 15:21 47.11216 10.94379 38045 ft 459 kts 310°
2026-04-25 15:21 47.15543 10.87458 38054 ft 461 kts 310°
2026-04-25 15:22 47.19878 10.80503 38054 ft 461 kts 310°
2026-04-25 15:22 47.24212 10.73539 38073 ft 462 kts 311°
2026-04-25 15:23 47.28541 10.66563 38088 ft 460 kts 311°
2026-04-25 15:23 47.32840 10.59614 38101 ft 457 kts 311°
2026-04-25 15:24 47.37114 10.52691 38093 ft 456 kts 311°
2026-04-25 15:24 47.40776 10.47108 38103 ft 456 kts 317°
2026-04-25 15:25 47.46585 10.40325 38109 ft 455 kts 322°
2026-04-25 15:25 47.51603 10.34630 38098 ft 455 kts 322°
2026-04-25 15:26 47.56610 10.28882 38111 ft 455 kts 322°
2026-04-25 15:26 47.61596 10.23112 38098 ft 454 kts 321°
2026-04-25 15:27 47.66581 10.17324 38096 ft 454 kts 321°
2026-04-25 15:28 47.74035 10.08645 38080 ft 454 kts 321°
2026-04-25 15:28 47.78971 10.02882 38084 ft 454 kts 321°
2026-04-25 15:29 47.83926 9.97082 38074 ft 453 kts 321°
2026-04-25 15:29 47.88874 9.91275 38056 ft 453 kts 321°
2026-04-25 15:30 47.93817 9.85459 38072 ft 452 kts 321°
2026-04-25 15:30 47.98745 9.79646 38063 ft 451 kts 321°
2026-04-25 15:31 48.03664 9.73830 38080 ft 450 kts 321°
2026-04-25 15:31 48.08564 9.68004 38058 ft 450 kts 320°
2026-04-25 15:32 48.13146 9.61645 38074 ft 449 kts 316°
2026-04-25 15:32 48.17611 9.55120 38069 ft 448 kts 315°
2026-04-25 15:33 48.24315 9.45320 38061 ft 448 kts 315°
2026-04-25 15:33 48.28756 9.38840 38077 ft 448 kts 315°
2026-04-25 15:34 48.33221 9.32318 38058 ft 448 kts 315°
2026-04-25 15:34 48.36208 9.27946 38075 ft 448 kts 315°
2026-04-25 15:35 48.44366 9.15965 38052 ft 448 kts 315°
2026-04-25 15:36 48.51048 9.06109 38077 ft 448 kts 315°
2026-04-25 15:36 48.55498 8.99522 38075 ft 448 kts 315°
2026-04-25 15:37 48.59949 8.92918 38075 ft 449 kts 315°
2026-04-25 15:37 48.64404 8.86289 38076 ft 449 kts 315°
2026-04-25 15:38 48.68856 8.79649 38078 ft 450 kts 315°
2026-04-25 15:38 48.73310 8.72988 38083 ft 450 kts 315°
2026-04-25 15:39 48.77761 8.66312 38088 ft 450 kts 315°
2026-04-25 15:39 48.82214 8.59618 38087 ft 451 kts 315°
2026-04-25 15:40 48.85167 8.55168 38082 ft 451 kts 315°
2026-04-25 15:40 48.91102 8.46201 38083 ft 452 kts 314°
2026-04-25 15:41 48.95555 8.39452 38084 ft 451 kts 314°
2026-04-25 15:41 49.00003 8.32694 38077 ft 451 kts 314°
2026-04-25 15:42 49.04445 8.25926 38066 ft 451 kts 314°
2026-04-25 15:42 49.08874 8.19159 38069 ft 451 kts 314°
2026-04-25 15:43 49.13299 8.12382 38091 ft 450 kts 314°
2026-04-25 15:43 49.17713 8.05602 38095 ft 449 kts 314°
2026-04-25 15:44 49.22119 7.98817 38086 ft 449 kts 314°
2026-04-25 15:44 49.26488 7.92071 38104 ft 449 kts 314°
2026-04-25 15:45 49.30890 7.85253 38075 ft 449 kts 314°
2026-04-25 15:45 49.33833 7.80692 38075 ft 451 kts 314°
2026-04-25 15:46 49.39707 7.71548 38071 ft 453 kts 314°
2026-04-25 15:46 49.44131 7.64640 38074 ft 454 kts 314°
2026-04-25 15:47 49.48383 7.57986 38072 ft 454 kts 314°
2026-04-25 15:47 49.52801 7.51053 38079 ft 453 kts 314°
2026-04-25 15:48 49.57208 7.44118 38113 ft 452 kts 314°
2026-04-25 15:48 49.61594 7.37197 38092 ft 450 kts 314°
2026-04-25 15:49 49.65960 7.30288 38097 ft 449 kts 314°
2026-04-25 15:49 49.70311 7.23385 38099 ft 448 kts 314°
2026-04-25 15:50 49.74648 7.16485 38108 ft 447 kts 313°
2026-04-25 15:50 49.78971 7.09588 38104 ft 446 kts 313°
2026-04-25 15:51 49.81827 7.05021 38087 ft 446 kts 313°
2026-04-25 15:51 49.86867 6.96942 38095 ft 445 kts 313°
2026-04-25 15:52 49.91857 6.88916 38096 ft 445 kts 313°
2026-04-25 15:52 49.95458 6.83110 38071 ft 445 kts 313°
2026-04-25 15:53 49.99726 6.76211 38099 ft 445 kts 313°
2026-04-25 15:53 50.04016 6.69254 38096 ft 446 kts 313°
2026-04-25 15:54 50.08307 6.62278 38091 ft 446 kts 313°
2026-04-25 15:54 50.12594 6.55291 38118 ft 445 kts 313°
2026-04-25 15:55 50.16868 6.48295 38098 ft 445 kts 311°
2026-04-25 15:55 50.20632 6.40624 38103 ft 445 kts 301°
2026-04-25 15:56 50.23854 6.32379 38119 ft 445 kts 301°
2026-04-25 15:56 50.27070 6.24113 38133 ft 445 kts 301°
2026-04-25 15:57 50.30295 6.15850 38131 ft 445 kts 301°
2026-04-25 15:57 50.33520 6.07595 38152 ft 444 kts 301°
2026-04-25 15:58 50.36744 5.99323 38140 ft 444 kts 301°
2026-04-25 15:58 50.39935 5.91107 38153 ft 444 kts 301°
2026-04-25 15:59 50.43148 5.82811 38161 ft 445 kts 300°
2026-04-25 15:59 50.46352 5.74508 38165 ft 445 kts 300°
2026-04-25 16:00 50.49015 5.67590 38179 ft 445 kts 300°
2026-04-25 16:00 50.52753 5.57844 38171 ft 445 kts 300°
2026-04-25 16:01 50.55946 5.49489 38169 ft 446 kts 300°
2026-04-25 16:01 50.59138 5.41113 38190 ft 446 kts 300°
2026-04-25 16:02 50.62327 5.32717 38169 ft 446 kts 300°
2026-04-25 16:02 50.65508 5.24313 38185 ft 447 kts 300°
2026-04-25 16:03 50.68686 5.15889 38181 ft 447 kts 300°
2026-04-25 16:03 50.71840 5.07504 38188 ft 447 kts 299°
2026-04-25 16:04 50.75011 4.99044 38178 ft 448 kts 299°
2026-04-25 16:04 50.78190 4.90535 38174 ft 449 kts 299°
2026-04-25 16:05 50.81363 4.82015 38177 ft 450 kts 299°
2026-04-25 16:06 50.86118 4.69194 38176 ft 450 kts 299°
2026-04-25 16:06 50.89258 4.60693 38184 ft 451 kts 299°
2026-04-25 16:07 50.92419 4.52102 38182 ft 451 kts 299°
2026-04-25 16:07 50.95577 4.43494 38183 ft 451 kts 298°
2026-04-25 16:08 50.98732 4.34866 38183 ft 452 kts 298°
2026-04-25 16:08 51.01878 4.26231 38182 ft 452 kts 298°
2026-04-25 16:09 51.05022 4.17575 38176 ft 452 kts 298°
2026-04-25 16:09 51.08156 4.08914 38187 ft 452 kts 298°
2026-04-25 16:10 51.11287 4.00232 38176 ft 452 kts 298°
2026-04-25 16:10 51.14406 3.91556 38174 ft 452 kts 298°
2026-04-25 16:11 51.17499 3.82921 38179 ft 451 kts 298°
2026-04-25 16:11 51.20611 3.74203 38173 ft 452 kts 298°
2026-04-25 16:12 51.23714 3.65487 38174 ft 452 kts 298°
2026-04-25 16:12 51.26906 3.56825 38200 ft 453 kts 299°
2026-04-25 16:13 51.30134 3.48169 38186 ft 454 kts 299°
2026-04-25 16:13 51.33340 3.39483 38191 ft 454 kts 299°
2026-04-25 16:14 51.36096 3.30416 38189 ft 453 kts 289°
2026-04-25 16:14 51.38279 3.20966 38199 ft 453 kts 289°
2026-04-25 16:15 51.40506 3.11504 38202 ft 454 kts 290°
2026-04-25 16:15 51.42742 3.02031 38210 ft 455 kts 289°
2026-04-25 16:16 51.44963 2.92539 38202 ft 455 kts 289°
2026-04-25 16:16 51.47179 2.83027 38209 ft 456 kts 289°
2026-04-25 16:17 51.49394 2.73479 38210 ft 456 kts 289°
2026-04-25 16:17 51.51586 2.63992 38211 ft 456 kts 289°
2026-04-25 16:18 51.53789 2.54420 38210 ft 456 kts 289°
2026-04-25 16:18 51.55976 2.44847 38211 ft 456 kts 289°
2026-04-25 16:18 51.57066 2.40040 38101 ft 458 kts 289°
2026-04-25 16:19 51.58164 2.35186 37456 ft 462 kts 289°
2026-04-25 16:19 51.59257 2.30376 36761 ft 451 kts 289°
2026-04-25 16:19 51.60333 2.25653 36050 ft 450 kts 289°
2026-04-25 16:20 51.62497 2.16130 34324 ft 457 kts 289°
2026-04-25 16:20 51.63578 2.11348 33305 ft 461 kts 289°
2026-04-25 16:20 51.65788 2.01556 31222 ft 468 kts 288°
2026-04-25 16:21 51.66895 1.96643 30476 ft 465 kts 288°
2026-04-25 16:21 51.67994 1.91755 29666 ft 462 kts 288°
2026-04-25 16:21 51.69084 1.86896 28904 ft 459 kts 288°
2026-04-25 16:21 51.70161 1.82081 28207 ft 455 kts 288°
2026-04-25 16:22 51.71227 1.77299 27501 ft 451 kts 288°
2026-04-25 16:22 51.72285 1.72550 26800 ft 449 kts 288°
2026-04-25 16:22 51.73335 1.67823 26119 ft 446 kts 288°
2026-04-25 16:22 51.74337 1.63117 25440 ft 440 kts 284°
2026-04-25 16:23 51.74753 1.58254 24773 ft 436 kts 267°
2026-04-25 16:23 51.74399 1.53457 24173 ft 428 kts 262°
2026-04-25 16:23 51.74010 1.48707 23491 ft 426 kts 263°
2026-04-25 16:23 51.73672 1.43963 22796 ft 424 kts 264°
2026-04-25 16:24 51.73362 1.39306 22150 ft 422 kts 264°
2026-04-25 16:24 51.73053 1.34553 21514 ft 419 kts 264°
2026-04-25 16:24 51.72750 1.29895 20889 ft 416 kts 264°
2026-04-25 16:24 51.72450 1.25349 20295 ft 414 kts 264°
2026-04-25 16:25 51.72143 1.20744 19695 ft 412 kts 264°
2026-04-25 16:25 51.72040 1.19197 19477 ft 411 kts 264°
2026-04-25 16:25 51.71525 1.11592 18474 ft 409 kts 264°
2026-04-25 16:25 51.71215 1.07047 17795 ft 408 kts 264°
2026-04-25 16:26 51.70904 1.02501 17167 ft 406 kts 264°
2026-04-25 16:26 51.70600 0.98101 16539 ft 387 kts 264°
2026-04-25 16:26 51.70302 0.93801 16001 ft 385 kts 264°
2026-04-25 16:26 51.70005 0.89530 15556 ft 381 kts 264°
2026-04-25 16:27 51.69711 0.85313 15094 ft 378 kts 264°
2026-04-25 16:27 51.69416 0.81100 14637 ft 375 kts 264°
2026-04-25 16:27 51.69125 0.76935 14178 ft 374 kts 264°
2026-04-25 16:27 51.68833 0.72791 13684 ft 372 kts 264°
2026-04-25 16:28 51.68539 0.68663 13192 ft 370 kts 264°
2026-04-25 16:28 51.68246 0.64560 12728 ft 367 kts 264°
2026-04-25 16:28 51.67954 0.60496 12279 ft 363 kts 264°
2026-04-25 16:28 51.67664 0.56474 11800 ft 359 kts 264°
2026-04-25 16:29 51.67375 0.52494 11381 ft 356 kts 264°
2026-04-25 16:29 51.67088 0.48545 10952 ft 353 kts 264°
2026-04-25 16:29 51.66802 0.44638 10509 ft 350 kts 264°
2026-04-25 16:29 51.66514 0.40748 10093 ft 347 kts 264°
2026-04-25 16:30 51.66232 0.36935 9775 ft 334 kts 264°
2026-04-25 16:30 51.65966 0.33345 9569 ft 311 kts 264°
2026-04-25 16:30 51.65717 0.30009 9353 ft 289 kts 264°
2026-04-25 16:30 51.65484 0.26884 9004 ft 276 kts 264°
2026-04-25 16:31 51.65257 0.23853 8572 ft 270 kts 264°
2026-04-25 16:31 51.65034 0.20891 8166 ft 262 kts 264°
2026-04-25 16:31 51.64817 0.18035 7848 ft 253 kts 264°
2026-04-25 16:31 51.64508 0.15298 7491 ft 245 kts 248°
2026-04-25 16:32 51.63549 0.13054 7007 ft 243 kts 230°
2026-04-25 16:32 51.62467 0.11054 6684 ft 236 kts 231°
2026-04-25 16:32 51.61409 0.09054 6417 ft 235 kts 231°
2026-04-25 16:32 51.60328 0.07004 6101 ft 246 kts 231°
2026-04-25 16:33 51.59248 0.04957 5776 ft 248 kts 231°
2026-04-25 16:33 51.58132 0.02841 5452 ft 246 kts 231°
2026-04-25 16:33 51.57030 0.00754 5187 ft 243 kts 231°
2026-04-25 16:33 51.55944 -0.01307 4941 ft 240 kts 230°
2026-04-25 16:34 51.54873 -0.03334 4667 ft 236 kts 230°
2026-04-25 16:34 51.54174 -0.04660 4498 ft 234 kts 230°
2026-04-25 16:34 51.52778 -0.07306 4137 ft 230 kts 230°
2026-04-25 16:34 51.52028 -0.08491 3973 ft 229 kts 220°
2026-04-25 16:35 51.50766 -0.10042 3801 ft 228 kts 216°
2026-04-25 16:35 51.49468 -0.11500 3534 ft 226 kts 215°
2026-04-25 16:35 51.48175 -0.12944 3301 ft 229 kts 215°
2026-04-25 16:35 51.46857 -0.14413 3125 ft 231 kts 215°
2026-04-25 16:36 51.45539 -0.15886 3059 ft 228 kts 217°
2026-04-25 16:36 51.44798 -0.17069 2999 ft 228 kts 236°
2026-04-25 16:36 51.43767 -0.20051 3016 ft 232 kts 242°
2026-04-25 16:36 51.43001 -0.22329 3009 ft 232 kts 242°
2026-04-25 16:37 51.42235 -0.24601 3015 ft 240 kts 243°
2026-04-25 16:37 51.41594 -0.27178 2965 ft 249 kts 252°
2026-04-25 16:37 51.41146 -0.29856 2994 ft 249 kts 263°
2026-04-25 16:37 51.40998 -0.32598 3004 ft 252 kts 265°
2026-04-25 16:38 51.40846 -0.35420 3013 ft 256 kts 266°
2026-04-25 16:38 51.40750 -0.38258 3002 ft 253 kts 268°
2026-04-25 16:38 51.40668 -0.41053 2978 ft 249 kts 268°
2026-04-25 16:38 51.40591 -0.43825 3000 ft 249 kts 268°
2026-04-25 16:39 51.40515 -0.46612 3006 ft 251 kts 268°
2026-04-25 16:39 51.40438 -0.49413 3006 ft 253 kts 268°
2026-04-25 16:39 51.40361 -0.52231 3007 ft 253 kts 268°
2026-04-25 16:39 51.40284 -0.55051 3000 ft 254 kts 268°
2026-04-25 16:40 51.40205 -0.57864 2976 ft 249 kts 268°
2026-04-25 16:40 51.40129 -0.60553 3002 ft 234 kts 268°
2026-04-25 16:40 51.40059 -0.63067 3006 ft 219 kts 268°
2026-04-25 16:40 51.39990 -0.65451 3015 ft 216 kts 268°
2026-04-25 16:41 51.40079 -0.67828 2977 ft 214 kts 289°
2026-04-25 16:41 51.40541 -0.69189 2950 ft 207 kts 308°
2026-04-25 16:41 51.43116 -0.72096 2637 ft 191 kts 338°
2026-04-25 16:42 51.44340 -0.72918 2569 ft 189 kts 337°
2026-04-25 16:42 51.45607 -0.73429 2499 ft 190 kts
2026-04-25 16:42 51.46785 -0.72574 2508 ft 191 kts 46°
2026-04-25 16:42 51.47353 -0.70699 2510 ft 194 kts 79°
2026-04-25 16:43 51.47526 -0.68539 2511 ft 196 kts 82°
2026-04-25 16:43 51.47663 -0.66351 2260 ft 196 kts 86°
2026-04-25 16:43 51.47694 -0.64251 2015 ft 181 kts 89°
2026-04-25 16:43 51.47693 -0.62316 1698 ft 165 kts 90°
2026-04-25 16:44 51.47679 -0.60613 1441 ft 144 kts 89°
2026-04-25 16:44 51.47681 -0.59000 1181 ft 145 kts 86°
2026-04-25 16:44 51.47717 -0.57395 1026 ft 143 kts 88°
2026-04-25 16:44 51.47717 -0.55788 856 ft 145 kts 89°
2026-04-25 16:45 51.47730 -0.54171 701 ft 144 kts 88°
2026-04-25 16:45 51.47743 -0.52570 540 ft 143 kts 89°
2026-04-25 16:45 51.47744 -0.50973 373 ft 144 kts 89°
2026-04-25 16:45 51.47748 -0.49375 209 ft 142 kts 89°
2026-04-25 16:46 51.47752 -0.47790 92 ft 140 kts 89°
2026-04-25 16:46 51.47758 -0.46423 96 ft 103 kts 89°
2026-04-25 16:46 51.47760 -0.45508 93 ft 59 kts 90°
2026-04-25 16:46 51.47761 -0.45214 92 ft 30 kts 89°
2026-04-25 16:47 51.47732 -0.44877 97 ft 18 kts 131°
2026-04-25 16:47 51.47658 -0.44800 96 ft 0 kts 153°
2026-04-25 16:47 51.47641 -0.44787 95 ft 12 kts 153°
2026-04-25 16:47 51.47604 -0.44780 94 ft 3 kts 226°
2026-04-25 16:48 51.47602 -0.44816 94 ft 4 kts 266°
2026-04-25 16:48 51.47599 -0.44883 91 ft 9 kts 266°
2026-04-25 16:48 51.47598 -0.44991 91 ft 12 kts 270°
2026-04-25 16:48 51.47598 -0.45103 91 ft 10 kts 270°
2026-04-25 16:49 51.47598 -0.45167 91 ft 0 kts 270°
2026-04-25 16:49 51.47598 -0.45179 92 ft 3 kts 270°
2026-04-25 16:49 51.47598 -0.45239 92 ft 7 kts 270°
2026-04-25 16:49 51.47597 -0.45294 92 ft 5 kts 270°
2026-04-25 16:50 51.47597 -0.45334 93 ft 6 kts 270°
2026-04-25 16:50 51.47594 -0.45421 95 ft 6 kts 255°
2026-04-25 16:50 51.47561 -0.45466 94 ft 7 kts 195°
2026-04-25 16:50 51.47517 -0.45430 96 ft 8 kts 133°
2026-04-25 16:51 51.47508 -0.45344 95 ft 9 kts 89°
2026-04-25 16:51 51.47509 -0.45201 94 ft 15 kts 90°
2026-04-25 16:51 51.47509 -0.45046 94 ft 14 kts 90°
2026-04-25 16:51 51.47509 -0.44942 94 ft 14 kts 90°
2026-04-25 16:52 51.47510 -0.44754 94 ft 12 kts 89°
2026-04-25 16:52 51.47503 -0.44616 94 ft 13 kts 114°
2026-04-25 16:52 51.47427 -0.44559 91 ft 13 kts 179°
2026-04-25 16:52 51.47336 -0.44559 91 ft 13 kts 180°
2026-04-25 16:53 51.47203 -0.44557 91 ft 8 kts 179°
2026-04-25 16:53 51.47186 -0.44557 91 ft 2 kts 179°
2026-04-25 16:53 51.47184 -0.44557 91 ft 1 kts 179°
2026-04-25 16:54 51.47177 -0.44557 91 ft 1 kts 179°
2026-04-25 16:54 51.47174 -0.44557 91 ft 1 kts 179°
2026-04-25 16:54 51.47167 -0.44557 91 ft 1 kts 179°
2026-04-25 16:54 51.47154 -0.44557 91 ft 2 kts 179°
2026-04-25 16:55 51.47125 -0.44557 91 ft 7 kts 180°
2026-04-25 16:55 51.47019 -0.44556 91 ft 16 kts 180°
2026-04-25 16:55 51.46926 -0.44556 91 ft 13 kts 180°
2026-04-25 16:55 51.46882 -0.44556 91 ft 1 kts 180°
2026-04-25 16:56 51.46871 -0.44555 91 ft 2 kts 179°
2026-04-25 16:56 51.46852 -0.44555 93 ft 5 kts 179°
2026-04-25 16:56 51.46804 -0.44555 93 ft 8 kts 180°
2026-04-25 16:56 51.46757 -0.44601 95 ft 9 kts 244°
2026-04-25 16:57 51.46753 -0.44700 92 ft 6 kts 270°
2026-04-25 16:57 51.46752 -0.44730 91 ft 5 kts 270°
2026-04-25 16:57 51.46752 -0.44915 91 ft 14 kts 269°
2026-04-25 16:57 51.46751 -0.45070 91 ft 14 kts 270°
2026-04-25 16:58 51.46751 -0.45225 93 ft 14 kts 270°
2026-04-25 16:58 51.46751 -0.45380 91 ft 14 kts 270°
2026-04-25 16:58 51.46751 -0.45533 91 ft 14 kts 269°
2026-04-25 16:58 51.46750 -0.45689 92 ft 14 kts 270°
2026-04-25 16:59 51.46758 -0.45823 93 ft 9 kts 306°
2026-04-25 16:59 51.46775 -0.45836 96 ft 1 kts 356°
2026-04-25 16:59 51.46790 -0.45831 94 ft 3 kts 10°
2026-04-25 16:59 51.46816 -0.45828 94 ft 2 kts 360°
2026-04-25 17:00 51.46829 -0.45828 91 ft 2 kts 360°
2026-04-25 17:00 51.46834 -0.45828 95 ft 1 kts 360°
2026-04-25 17:00 51.46837 -0.45828 95 ft 0 kts 360°
2026-04-25 17:04 51.46836 -0.45828 95 ft 0 kts 360°